     2              OBSERVATION DATA    GPS                 RINEX VERSION / TYPE
teqc 1997Sep10 19971030 21:32:52UTC                         PGM / RUN BY / DATE
                                                            COMMENT
Original Marker Name: 55477.OCOT                            COMMENT
Campaign Name: NGS Imperial Valley 1990                     COMMENT
4-Character Station Name: OCOT                              COMMENT
6-Character Antenna Code: TI4100                            COMMENT
Vertical Measurement Point: PAE                             COMMENT
Vertical Offset to Rinex Ref. Point: 0.0000                 COMMENT
Radial Measurement Point: RRP                               COMMENT
Radial Offset to Rinex Ref. Point: 0.0000                   COMMENT
Antenna Height from Field Measurement: 1.3290 m             COMMENT
Original XYZ: -2335514.7481 -4832320.4409 3434399.3935      COMMENT
New XYZ position is based on association with SCEC monument COMMENT
E1C8V7N3+0011. Position of that monument is believed to be  COMMENT
valid to within 1 m horizontally; vertical accuracy         COMMENT
should be no worse than 3-times this value.                 COMMENT
                                                            COMMENT
Revised Rinex header created by UCSD GPS archive for        COMMENT
GSAC on 10-Apr-1999 (1999:100) 05:15:46 GMT                 COMMENT
For assistance contact dagnew@ucsd.edu or hjohnson@ucsd.edu COMMENT
                                                            COMMENT
OCOTILLO NCMN 7270                                          MARKER NAME
5 NATIONAL GEODETIC SURVEY                                  OBSERVER / AGENCY
30 TI 4100 1.9                                              REC # / TYPE / VERS
108 TI 4100                                                 ANT # / TYPE
 -2335602.0000 -4832244.0000  3434393.0000                  APPROX POSITION XYZ
        1.3290        0.0000        0.0000                  ANTENNA: DELTA H/E/N
     1     1     0                                          WAVELENGTH FACT L1/2
     4    P1    P2    L1    L2                              # / TYPES OF OBSERV
    15                                                      INTERVAL
  1990     2    22     8    56   29.000000                  TIME OF FIRST OBS
  1990     2    22    10    40   59.000000                  TIME OF LAST OBS
     0                                                      # OF SATELLITES
                                                            END OF HEADER
 90  2 22  8 56 29.0800000  0  4G 3G12G19G13
  21850023.725    21850028.232    26469040.533 8 -49336472.728 7
  21790885.845    21790890.132    53855566.625 9 -72166048.715 9
  22721522.171    22721526.355    13788038.537 8 -22346256.172 8
  21730437.833    21730442.075    80269648.408 9-125025216.293 7
 90  2 22  8 56 44.0800000  0  4G 3G12G19G13
  21847606.810    21847609.823    26456332.966 8 -49346374.727 7
  21798492.252    21798497.515    53895542.988 9 -72134898.322 8
  22721152.766    22721155.402    13786097.104 9 -22347768.960 8
  21734013.757    21734018.188    80288446.120 9-125010568.728 8
 90  2 22  8 56 59.0800000  0  4G 3G12G19G13
  21845193.817    21845197.432    26443655.747 8 -49356253.078 8
  21806119.799    21806123.898    53935623.119 8 -72103667.073 8
  22720808.153    22720813.108    13784290.071 9 -22349177.052 8
  21737592.978    21737597.387    80307257.607 9-124995910.445 8
 90  2 22  8 57 14.0800000  0  4G 3G12G19G13
  21842787.274    21842790.144    26431008.786 9 -49366107.850 7
  21813765.959    21813772.272    53975806.922 9 -72072355.021 9
  22720490.985    22720494.332    13782617.559 9 -22350480.313 7
  21741176.675    21741180.334    80326083.125 8-124981241.210 7
 90  2 22  8 57 29.0800000  0  4G 3G12G19G13
  21840384.819    21840390.956    26418392.095 8 -49375939.034 8
  21821433.421    21821437.649    54016093.864 9 -72040962.616 9
  22720198.555    22720200.949    13781079.464 9 -22351678.827 8
  21744761.083    21744765.932    80344922.339 9-124966561.305 8
 90  2 22  8 57 44.0800000  0  4G 3G12G19G13
  21837991.187    21837994.392    26405805.395 9 -49385746.845 7
  21829117.909    21829123.214    54056483.400 8 -72009490.268 8
  22719931.335    22719934.213    13779675.714 8 -22352772.657 6
  21748349.032    21748353.303    80363775.254 9-124951870.719 8
 90  2 22  8 57 59.0800000  0  4G 3G12G19G13
  21835602.862    21835605.148    26393248.923 9 -49395531.111 7
  21836822.632    21836829.405    54096975.361 9 -71977938.107 9
  22719689.186    22719693.620    13778406.291 8 -22353761.823 8
  21751938.942    21751943.308    80382642.118 9-124937169.270 8
 90  2 22  8 58 14.0800000  0  4G 3G12G19G13
  21833218.950    21833222.460    26380722.407 9 -49405292.033 7
  21844548.198    21844553.220    54137569.232 8 -71946306.529 9
  22719472.519    22719476.659    13777271.136 8 -22354646.358 8
  21755531.815    21755535.408    80401522.425 9-124922457.339 7
 90  2 22  8 58 29.0800000  0  4G 3G12G19G13
  21830840.362    21830845.452    26368225.815 9 -49415029.633 8
  21852291.353    21852296.778    54178264.717 8 -71914595.766 7
  22719281.566    22719286.645    13776270.345 9 -22355426.181 8
  21759126.696    21759132.114    80420416.237 8-124907734.908 8
 90  2 22  8 58 44.0800000  0  4G 3G12G19G13
  21828467.491    21828471.309    26355759.012 9 -49424744.018 7
  21860055.290    21860061.637    54219061.417 8 -71882806.149 8
  22719116.963    22719121.606    13775403.568 8 -22356101.600 7
  21762724.235    21762728.718    80439323.635 8-124893001.876 7
 90  2 22  8 58 59.0800000  0  4G 3G12G19G13
  21826099.787    21826103.863    26343322.014 9 -49434435.182 7
  21867837.732    21867842.812    54259958.907 9 -71850937.994 7
  22718977.391    22718982.457    13774670.712 8 -22356672.650 8
  21766325.141    21766330.834    80458244.437 8-124878258.393 8
 90  2 22  8 59 14.0800000  0  4G 3G12G19G13
  21823739.343    21823744.398    26330914.809 8 -49444103.136 8
  21875639.891    21875645.239    54300956.947 8 -71818991.475 8
  22718864.104    22718868.120    13774071.954 8 -22357139.218 9
  21769927.678    21769933.219    80477178.660 9-124863504.465 8
 90  2 22  8 59 29.0800000  0  4G 3G12G19G13
  21821384.050    21821388.529    26318537.353 9 -49453747.902 7
  21883459.693    21883466.128    54342055.061 9 -71786966.972 9
  22718775.731    22718780.305    13773607.228 8 -22357501.356 8
  21773534.819    21773539.846    80496126.358 9-124848740.040 7
 90  2 22  8 59 44.0800000  0  4G 3G12G19G13
  21819034.018    21819039.189    26306189.540 8 -49463369.569 7
  21891299.724    21891304.540    54383252.986 9 -71754864.718 9
  22718713.860    22718716.525    13773276.284 8 -22357759.236 7
  21777141.854    21777146.551    80515087.433 9-124833965.183 8
 90  2 22  8 59 59.0800000  0  4G 3G12G19G13
  21816691.499    21816695.276    26293871.014 8 -49472968.422 8
  21899158.718    21899163.811    54424550.123 9 -71722685.141 9
  22718675.511    22718679.434    13773078.764 9 -22357913.150 8
  21780753.014    21780757.746    80534061.736 9-124819180.005 8
 90  2 22  9  0 14.0800000  0  4G 3G12G19G13
  21814353.318    21814357.532    26281581.694 9 -49482544.517 8
  21907036.761    21907042.460    54465945.779 8 -71690428.809 7
  22718663.519    22718667.633    13773014.709 8 -22357963.064 8
  21784366.105    21784370.507    80553048.883 8-124804384.819 8
 90  2 22  9  0 29.0800000  0  4G 3G12G19G13
  21812019.117    21812022.874    26269320.867 9 -49492098.401 7
  21914932.908    21914937.667    54507438.948 9 -71658096.468 7
  22718676.389    22718678.864    13773083.621 9 -22357909.372 8
  21787980.340    21787985.278    80572048.273 8-124789580.119 8
 90  2 22  9  0 44.0800000  0  4G 3G12G19G13
  21809690.469    21809694.845    26257089.435 9 -49501629.380 8
  21922846.803    21922851.529    54549030.191 9 -71625687.711 8
  22718715.206    22718719.593    13773286.189 9 -22357751.527 8
  21791598.740    21791604.349    80591060.923 9-124774765.071 7
 90  2 22  9  0 59.0800000  0  4G 3G12G19G13
  21807368.602    21807373.117    26244887.321 8 -49511137.512 8
  21930779.531    21930785.179    54590719.088 9 -71593202.875 8
  22718777.452    22718783.441    13773622.531 9 -22357489.444 8
  21795219.653    21795225.621    80610086.875 9-124759939.659 8
 90  2 22  9  1 14.0800000  0  4G 3G12G19G13
  21805052.678    21805056.411    26232714.962 9 -49520622.461 8
  21938731.521    21938736.286    54632505.742 9 -71560641.870 8
  22718867.496    22718872.358    13774092.579 9 -22357123.194 8
  21798843.126    21798848.382    80629126.425 9-124745103.649 7
 90  2 22  9  1 29.0800000  0  4G 3G12G19G13
  21802742.590    21802744.889    26220571.556 9 -49530084.851 7
  21946702.358    21946707.982    54674389.150 9 -71528005.446 7
  22718984.040    22718986.953    13774695.972 9 -22356653.008 7
  21802470.129    21802473.799    80648178.912 9-124730257.566 7
 90  2 22  9  1 44.0800000  0  4G 3G12G19G13
  21800437.094    21800440.396    26208457.288 8 -49539524.534 8
  21954689.987    21954695.708    54716369.100 9 -71495293.809 8
  22719123.327    22719126.964    13775432.608 9 -22356079.004 8
  21806097.341    21806102.021    80667244.460 8-124715401.305 7
 90  2 22  9  1 59.0800000  0  4G 3G12G19G13
  21798137.229    21798139.099    26196371.874 9 -49548941.752 7
  21962699.031    21962702.883    54758445.031 9 -71462507.383 8
  22719288.073    22719292.875    13776302.372 8 -22355401.272 8
  21809726.532    21809731.410    80686322.942 8-124700534.964 8
 90  2 22  9  2 14.0800000  0  4G 3G12G19G13
  21795843.017    21795846.987    26184315.503 8 -49558336.322 8
  21970721.993    21970727.437    54800616.637 9 -71429646.390 8
  22719479.493    22719483.155    13777305.384 9 -22354619.717 8
  21813360.037    21813365.699    80705414.549 8-124685658.396 7
 90  2 22  9  2 29.0800000  0  4G 3G12G19G13
  21793554.457    21793557.662    26172288.062 9 -49567708.337 7
  21978764.842    21978770.302    54842883.524 9 -71396711.165 9
  22719695.488    22719699.815    13778441.469 8 -22353734.449 8
  21816994.937    21816999.318    80724519.072 9-124670771.762 8
 90  2 22  9  2 44.0800000  0  4G 3G12G19G13
  21791271.938    21791274.211    26160289.324 8 -49577058.008 7
  21986827.083    21986832.645    54885245.167 9 -71363702.116 7
  22719937.761    22719941.671    13779710.498 9 -22352745.606 9
  21820633.448    21820638.432    80743636.409 9-124655875.147 7
 90  2 22  9  2 59.0800000  0  4G 3G12G19G13
  21788992.947    21788997.847    26148319.197 8 -49586385.378 8
  21994905.685    21994910.678    54927701.174 9 -71330619.514 8
  22720204.018    22720207.622    13781112.317 8 -22351653.281 7
  21824273.346    21824279.142    80762766.550 8-124640968.543 8
 90  2 22  9  3 14.0800000  0  4G 3G12G19G13
  21786721.129    21786725.010    26136377.404 9 -49595690.670 7
  22003002.038    22003008.594    54970250.861 9 -71297463.909 7
  22720495.744    22720499.526    13782646.479 8 -22350457.833 7
  21827917.505    21827922.366    80781909.228 9-124626052.180 7
 90  2 22  9  3 29.0800000  0  4G 3G12G19G13
  21784453.579    21784458.291    26124464.047 8 -49604973.804 7
  22011117.930    22011123.263    55012894.142 9 -71264235.402 7
  22720813.468    22720817.437    13784313.234 8 -22349159.057 8
  21831562.196    21831567.913    80801064.798 8-124611125.768 7
 90  2 22  9  3 44.0800000  0  4G 3G12G19G13
  21782192.017    21782196.405    26112579.403 8 -49614234.561 8
  22019249.666    22019254.711    55055630.894 9 -71230934.052 8
  22721155.744    22721160.331    13786112.782 9 -22347756.824 7
  21835208.335    21835214.158    80820233.190 9-124596189.357 8
 90  2 22  9  3 59.0800000  0  4G 3G12G19G13
  21779935.138    21779939.979    26100723.319 9 -49623473.064 8
  22027399.814    22027406.134    55098460.526 9 -71197560.313 8
  22721522.765    22721527.925    13788044.863 7 -22346251.308 8
  21838859.106    21838864.502    80839414.339 8-124581243.006 7
 90  2 22  9  4 14.0800000  0  4G 3G12G19G13
  21777685.117    21777689.721    26088895.539 8 -49632689.512 8
  22035567.102    22035573.322    55141382.366 9 -71164114.747 8
  22721915.294    22721920.168    13790109.274 9 -22344642.691 8
  21842512.566    21842517.106    80858607.902 9-124566287.007 8
 90  2 22  9  4 29.0800000  0  4G 3G12G19G13
  21775440.734    21775443.553    26077095.940 9 -49641883.999 8
  22043753.450    22043758.593    55184396.298 9 -71130597.412 8
  22722334.690    22722337.125    13792305.815 9 -22342931.095 7
  21846167.217    21846171.537    80877814.134 8-124551321.110 7
 90  2 22  9  4 44.0800000  0  4G 3G12G19G13
  21773199.615    21773203.440    26065324.600 9 -49651056.472 8
  22051956.187    22051961.828    55227501.700 9 -71097008.779 8
  22722776.967    22722780.110    13794634.294 8 -22341116.692 8
  21849824.060    21849828.961    80897032.865 9-124536345.494 8
 90  2 22  9  4 59.0800000  0  4G 3G12G19G13
  21770965.746    21770969.133    26053581.582 9 -49660206.879 8
  22060175.384    22060181.302    55270698.184 9 -71063349.183 8
  22723245.071    22723248.181    13797094.749 8 -22339199.452 8
  21853484.050    21853487.025    80916264.189 8-124521360.047 7
 90  2 22  9  5 14.0800000  0  4G 3G12G19G13
  21768735.998    21768738.896    26041866.921 9 -49669335.184 7
  22068413.407    22068419.603    55313985.723 9 -71029618.660 8
  22723738.213    22723742.789    13799687.604 7 -22337179.066 7
  21857146.305    21857150.293    80935508.375 8-124506364.585 7
 90  2 22  9  5 29.0800000  0  4G 3G12G19G13
  21766512.922    21766514.884    26030180.463 8 -49678441.507 7
  22076669.698    22076673.558    55357363.844 9 -70995817.536 8
  22724256.301    22724260.947    13802412.529 8 -22335055.754 8
  21860810.766    21860815.318    80954765.299 9-124491359.202 8
 90  2 22  9  5 44.0800000  0  4G 3G12G19G13
  21764293.491    21764296.362    26018522.142 8 -49687525.924 7
  22084938.888    22084944.970    55400832.171 9 -70961946.108 7
  22724800.406    22724804.722    13805269.409 7 -22332829.622 7
  21864476.553    21864481.905    80974034.798 8-124476344.002 7
 90  2 22  9  5 59.0800000  0  4G 3G12G19G13
  21762078.845    21762084.524    26006891.828 8 -49696588.498 7
  22093228.422    22093232.502    55444390.040 9 -70928004.938 8
  22725369.138    22725374.322    13808258.005 8 -22330500.841 8
  21868145.509    21868151.561    80993316.868 9-124461319.038 8
 90  2 22  9  6 14.0800000  0  4G 3G12G19G13
  21759871.964    21759875.937    25995289.346 8 -49705629.411 7
  22101535.798    22101539.254    55488037.016 8 -70893994.320 8
  22725962.446    22725967.399    13811378.026 8 -22328069.671 8
  21871818.319    21871822.430    81012611.184 9-124446284.517 7
 90  2 22  9  6 29.0800000  0  4G 3G12G19G13
  21757669.901    21757672.243    25983714.684 7 -49714648.609 7
  22109856.159    22109861.439    55531772.580 8 -70859914.661 8
  22726581.585    22726587.179    13814629.357 9 -22325536.157 7
  21875492.301    21875496.995    81031917.815 8-124431240.396 7
 90  2 22  9  6 44.0800000  0  4G 3G12G19G13
  21755471.839    21755475.333    25972167.800 8 -49723646.174 8
  22118194.988    22118201.078    55575596.496 8 -70825766.199 8
  22727225.815    22727229.992    13818012.005 8 -22322900.333 8
  21879168.209    21879174.395    81051236.701 9-124416186.715 6
 90  2 22  9  6 59.0800000  0  4G 3G12G19G13
  21753279.565    21753285.364    25960648.566 8 -49732622.210 8
  22126553.314    22126556.816    55619508.384 8 -70791549.150 8
  22727894.991    22727899.369    13821525.871 8 -22320162.279 7
  21882846.187    21882850.169    81070567.880 9-124401123.465 8
 90  2 22  9  7 14.0800000  0  4G 3G12G19G13
  21751093.860    21751095.535    25949157.221 9 -49741576.511 7
  22134925.030    22134930.727    55663507.861 9 -70757263.855 8
  22728588.272    22728591.757    13825170.781 8 -22317322.085 8
  21886527.636    21886531.604    81089911.708 9-124386050.366 7
 90  2 22  9  7 29.0800000  0  4G 3G12G19G13
  21748911.937    21748915.605    25937693.632 9 -49750509.183 7
  22143313.385    22143320.043    55707594.438 9 -70722910.693 8
  22729306.221    22729311.468    13828946.764 8 -22314379.769 8
  21890211.661    21890215.242    81109267.847 9-124370967.666 8
 90  2 22  9  7 44.0800000  0  4G 3G12G19G13
  21746736.116    21746740.977    25926257.514 9 -49759420.443 7
  22151720.802    22151724.927    55751767.630 9 -70688490.043 8
  22730050.444    22730053.810    13832853.642 8 -22311335.459 7
  21893897.666    21893902.395    81128636.236 9-124355875.424 7
 90  2 22  9  7 59.0800000  0  4G 3G12G19G13
  21744565.376    21744568.555    25914848.972 8 -49768310.219 8
  22160143.759    22160148.180    55796027.126 8 -70654002.136 8
  22730818.409    22730822.003    13836891.593 8 -22308189.005 7
  21897585.205    21897588.448    81148016.951 9-124340773.564 8
 90  2 22  9  8 14.0800000  0  4G 3G12G19G13
  21742399.631    21742403.670    25903467.791 8 -49777178.674 7
  22168582.547    22168586.883    55840372.362 8 -70619447.418 7
  22731611.767    22731615.975    13841060.145 9 -22304940.773 8
  21901275.408    21901280.128    81167409.671 9-124325662.373 7
 90  2 22  9  8 29.0800000  0  4G 3G12G19G13
  21740238.163    21740242.158    25892114.102 8 -49786025.696 8
  22177036.619    22177041.204    55884803.082 9 -70584826.108 8
  22732429.274    22732433.501    13845359.364 8 -22301590.740 8
  21904967.319    21904972.169    81186814.506 8-124310541.734 8
 90  2 22  9  8 44.0800000  0  4G 3G12G19G13
  21738082.687    21738088.208    25880787.738 9 -49794851.431 7
  22185506.795    22185512.736    55929318.941 9 -70550138.445 9
  22733271.731    22733276.151    13849788.962 8 -22298139.106 8
  21908663.144    21908665.846    81206231.752 9-124295411.430 7
 90  2 22  9  8 59.0800000  0  4G 3G12G19G13
  21735932.615    21735937.874    25869488.863 8 -49803655.741 8
  22193995.728    22193999.444    55973919.514 9 -70515384.756 8
  22734140.433    22734143.486    13854348.965 8 -22294585.875 8
  21912360.324    21912365.259    81225661.403 9-124280271.444 7
 90  2 22  9  9 14.0800000  0  4G 3G12G19G13
  21733789.269    21733793.482    25858217.327 8 -49812438.776 7
  22202497.814    22202503.683    56018604.430 9 -70480565.355 8
  22735032.811    22735036.780    13859039.084 8 -22290931.233 8
  21916059.356    21916064.397    81245103.273 9-124265121.932 7
 90  2 22  9  9 29.0800000  0  4G 3G12G19G13
  21731649.283    21731652.858    25846973.023 8 -49821200.557 8
  22211017.624    22211022.031    56063373.134 9 -70445680.669 8
  22735949.583    22735953.494    13863859.305 8 -22287175.222 8
  21919762.647    21919766.133    81264557.486 9-124249962.812 7
 90  2 22  9  9 44.0800000  0  4G 3G12G19G13
  21729514.722    21729517.584    25835755.864 9 -49829941.209 7
  22219552.329    22219557.967    56108225.267 9 -70410730.970 8
  22736891.415    22736897.593    13868809.556 9 -22283317.877 8
  21923465.634    21923471.602    81284023.888 9-124234794.210 7
 90  2 22  9  9 59.0800000  0  4G 3G12G19G13
  21727384.821    21727388.431    25824565.976 9 -49838660.597 7
  22228103.073    22228108.650    56153160.432 9 -70375716.555 8
  22737859.606    22737863.396    13873889.617 8 -22279359.390 9
  21927172.115    21927176.653    81303502.538 8-124219616.041 8
 90  2 22  9 10 14.0800000  0  4G 3G12G19G13
  21725260.113    21725263.572    25813403.122 9 -49847358.936 7
  22236668.529    22236674.745    56198178.059 9 -70340637.918 8
  22738850.967    22738852.715    13879099.473 9 -22275299.778 7
  21930882.417    21930884.610    81322993.351 8-124204428.408 7
 90  2 22  9 10 29.0800000  0  4G 3G12G19G13
  21723141.694    21723144.774    25802267.193 8 -49856036.281 7
  22245251.641    22245256.778    56243277.804 9 -70305495.279 8
  22739866.518    22739871.425    13884438.913 9 -22271139.179 8
  21934592.943    21934596.770    81342496.395 9-124189231.239 8
 90  2 22  9 10 44.0800000  0  4G 3G12G19G13
  21721027.512    21721030.585    25791158.575 8 -49864692.351 7
  22253849.596    22253855.899    56288459.600 9 -70270288.689 8
  22740905.893    22740910.249    13889908.138 8 -22266877.463 7
  21938306.982    21938313.313    81362011.695 9-124174024.521 6
 90  2 22  9 10 59.0800000  0  4G 3G12G19G13
  21718918.357    21718923.311    25780076.539 8 -49873327.709 7
  22262462.240    22262468.949    56333722.516 9 -70235018.896 8
  22741972.796    22741977.441    13895506.316 8 -22262515.249 8
  21942022.373    21942025.696    81381538.767 9-124158808.607 7
 90  2 22  9 11 14.0800000  0  4G 3G12G19G13
  21716814.484    21716818.681    25769021.390 8 -49881942.099 8
  22271090.648    22271096.917    56379066.355 9 -70199686.067 8
  22743062.327    22743066.833    13901233.589 8 -22258052.438 8
  21945739.860    21945745.279    81401077.712 9-124143583.468 7
 90  2 22  9 11 29.0800000  0  4G 3G12G19G13
  21714716.982    21714720.152    25757993.387 8 -49890535.350 7
  22279734.827    22279741.971    56424490.895 9 -70164290.329 8
  22744176.622    22744182.487    13907090.200 8 -22253488.860 7
  21949461.069    21949465.520    81420628.919 8-124128348.773 8
 90  2 22  9 11 44.0800000  0  4G 3G12G19G13
  21712622.866    21712626.641    25746992.184 8 -49899107.698 8
  22288394.126    22288399.764    56469995.405 9 -70128832.271 8
  22745315.110    22745319.204    13913075.688 7 -22248824.836 8
  21953184.670    21953188.961    81440192.166 9-124113104.681 8
 90  2 22  9 11 59.0800000  0  4G 3G12G19G13
  21710534.607    21710538.243    25736017.689 8 -49907659.273 8
  22297068.273    22297074.696    56515579.825 9 -70093311.945 8
  22746479.908    22746483.412    13919190.216 8 -22244060.278 7
  21956908.715    21956915.813    81459767.655 9-124097851.067 8
 90  2 22  9 12 14.0800000  0  4G 3G12G19G13
  21708451.534    21708454.983    25725070.455 8 -49916189.578 7
  22305758.691    22305764.549    56561243.876 9 -70057729.599 9
  22747667.582    22747672.072    13925433.752 8 -22239195.185 8
  21960636.600    21960641.263    81479355.498 9-124082587.807 7
 90  2 22  9 12 29.0800000  0  4G 3G12G19G13
  21706373.334    21706376.802    25714149.645 8 -49924699.312 7
  22314464.771    22314468.937    56606986.566 9 -70022085.960 9
  22748880.439    22748883.688    13931805.729 8 -22234230.011 9
  21964365.661    21964371.818    81498955.320 9-124067315.220 8
 90  2 22  9 12 44.0800000  0  4G 3G12G19G13
  21704299.845    21704304.662    25703255.624 9 -49933188.148 7
  22323183.195    22323188.489    56652807.782 9 -69986381.130 8
  22750116.125    22750121.846    13938306.181 8 -22229164.730 7
  21968097.756    21968102.728    81518567.399 9-124052033.091 7
 90  2 22  9 12 59.0800000  0  4G 3G12G19G13
  21702230.938    21702236.847    25692388.301 8 -49941656.185 8
  22331918.281    22331922.987    56698707.190 9 -69950615.379 8
  22751377.901    22751383.274    13944935.201 8 -22223999.276 8
  21971832.384    21971837.163    81538191.689 9-124036741.453 7
 90  2 22  9 13 14.0800000  0  4G 3G12G19G13
  21700169.293    21700173.459    25681547.369 8 -49950103.654 8
  22340667.404    22340672.257    56744684.000 9 -69914789.318 9
  22752664.078    22752668.877    13951692.129 8 -22218734.133 7
  21975569.252    21975573.322    81557827.824 8-124021440.568 7
 90  2 22  9 13 29.0800000  0  4G 3G12G19G13
  21698110.258    21698114.124    25670733.106 8 -49958530.368 8
  22349431.044    22349436.261    56790738.030 9 -69878903.059 8
  22753973.223    22753977.938    13958577.336 8 -22213369.041 8
  21979308.373    21979313.122    81577476.508 8-124006129.909 7
 90  2 22  9 13 44.0800000  0  4G 3G12G19G13
  21696057.637    21696060.927    25659945.236 8 -49966936.489 7
  22358207.541    22358214.795    56836868.811 9 -69842957.010 8
  22755309.849    22755312.213    13965590.139 8 -22207904.526 8
  21983049.963    21983052.789    81597137.051 9-123990810.025 7
 90  2 22  9 13 59.0800000  0  4G 3G12G19G13
  21694010.564    21694013.015    25649183.894 8 -49975321.963 7
  22367001.067    22367007.511    56883075.933 9 -69806951.483 8
  22756668.077    22756671.872    13972730.297 8 -22202340.782 8
  21986793.525    21986798.564    81616809.433 9-123975480.895 8
 90  2 22  9 14 14.0800000  0  4G 3G12G19G13
  21691968.595    21691972.412    25638449.011 8 -49983686.798 7
  22375809.261    22375814.075    56929359.060 8 -69770886.716 7
  22758051.911    22758054.800    13979997.974 7 -22196677.645 8
  21990539.068    21990542.907    81636493.989 9-123960142.285 7
 90  2 22  9 14 29.0800000  0  4G 3G12G19G13
  21689929.274    21689933.931    25627740.263 8 -49992031.278 8
  22384631.303    22384636.445    56975717.464 9 -69734763.281 7
  22759456.587    22759462.399    13987393.092 8 -22190915.228 9
  21994286.694    21994292.837    81656190.384 9-123944794.464 7
 90  2 22  9 14 44.0800000  0  4G 3G12G19G13
  21687897.617    21687900.817    25617057.865 8 -50000355.223 8
  22393467.851    22393472.571    57022150.959 8 -69698581.356 8
  22760890.026    22760894.441    13994915.470 8 -22185053.648 7
  21998037.682    21998042.046    81675898.816 9-123929437.236 7
 90  2 22  9 14 59.0800000  0  4G 3G12G19G13
  21685868.916    21685873.977    25606401.906 8 -50008658.567 7
  22402316.418    22402322.724    57068659.215 8 -69662341.188 8
  22762343.869    22762350.095    14002564.997 8 -22179092.984 8
  22001789.777    22001794.397    81695619.415 9-123914070.539 7
 90  2 22  9 15 14.0800000  0  4G 3G12G19G13
  21683846.063    21683848.972    25595772.266 7 -50016941.399 6
  22411182.005    22411186.145    57115241.677 8 -69626043.163 8
  22763823.917    22763829.415    14010341.593 7 -22173033.310 8
  22005544.746    22005550.279    81715352.078 9-123898694.453 7
 90  2 22  9 15 29.0800000  0  4G 3G12G19G13
  21681828.236    21681831.818    25585168.891 8 -50025203.777 6
  22420059.647    22420063.936    57161897.962 9 -69589687.612 8
  22765328.883    22765333.951    14018244.880 8 -22166874.908 7
  22009303.719    22009308.824    81735096.663 9-123883309.063 7
 90  2 22  9 15 44.0800000  0  4G 3G12G19G13
  21679817.135    21679820.060    25574591.556 8 -50033445.853 8
  22428949.860    22428958.092    57208627.571 8 -69553274.939 7
  22766855.940    22766861.209    14026274.839 8 -22160617.798 8
  22013062.461    22013066.629    81754853.245 8-123867914.339 7
 90  2 22  9 15 59.0800000  0  4G 3G12G19G13
  21677808.587    21677813.858    25564040.381 8 -50041667.535 7
  22437857.898    22437864.153    57255430.221 9 -69516805.375 8
  22768409.729    22768413.195    14034431.295 8 -22154262.118 9
  22016824.922    22016827.863    81774621.834 9-123852510.254 7
 90  2 22  9 16 14.0800000  0  4G 3G12G19G13
  21675805.788    21675809.848    25553515.602 8 -50049868.663 8
  22446778.617    22446784.099    57302305.567 8 -69480279.149 8
  22769985.456    22769989.709    14042714.131 8 -22147807.969 8
  22020587.362    22020593.304    81794402.705 9-123837096.583 7
 90  2 22  9 16 29.0800000  0  4G 3G12G19G13
  21673807.824    21673811.764    25543016.840 8 -50058049.519 8
  22455712.097    22455717.585    57349253.004 8 -69443696.733 8
  22771584.519    22771590.509    14051123.131 8 -22141255.519 8
  22024354.348    22024359.507    81814195.521 9-123821673.623 8
 90  2 22  9 16 44.0800000  0  4G 3G12G19G13
  21671814.439    21671819.320    25532543.872 7 -50066210.267 8
  22464658.044    22464665.418    57396271.984 8 -69407058.584 8
  22773208.747    22773213.931    14059658.116 8 -22134604.890 8
  22028123.435    22028126.865    81834000.172 9-123806241.425 7
 90  2 22  9 16 59.0800000  0  4G 3G12G19G13
  21669825.571    21669831.379    25522096.808 7 -50074350.823 7
  22473620.656    22473625.936    57443362.149 8 -69370364.959 8
  22774856.558    22774861.693    14068318.706 9 -22127856.384 7
  22031894.689    22031898.825    81853816.819 9-123790799.897 8
 90  2 22  9 17 14.0800000  0  4G 3G12G19G13
  21667842.888    21667847.336    25511675.627 7 -50082471.228 8
  22482595.720    22482600.248    57490523.213 9 -69333616.101 8
  22776530.258    22776533.928    14077104.920 8 -22121009.976 7
  22035666.620    22035672.050    81873645.406 9-123775349.052 8
 90  2 22  9 17 29.0800000  0  4G 3G12G19G13
  21665864.885    21665869.281    25501280.224 9 -50090571.529 7
  22491581.178    22491588.477    57537754.580 8 -69296812.471 9
  22778225.802    22778229.385    14086016.493 7 -22114065.899 7
  22039442.790    22039447.468    81893485.714 9-123759889.072 7
 90  2 22  9 17 44.0800000  0  4G 3G12G19G13
  21663892.242    21663896.072    25490910.695 9 -50098651.685 8
  22500584.180    22500588.890    57585055.959 7 -69259954.260 8
  22779945.337    22779949.155    14095053.407 8 -22107024.178 8
  22043220.257    22043225.449    81913338.156 9-123744419.648 7
 90  2 22  9 17 59.0800000  0  4G 3G12G19G13
  21661924.014    21661927.509    25480566.915 8 -50106711.763 7
  22509597.840    22509604.224    57632426.848 9 -69223041.897 8
  22781688.970    22781694.292    14104215.240 7 -22099885.097 7
  22047000.542    22047006.631    81933202.583 9-123728940.878 7
 90  2 22  9 18 14.0800000  0  4G 3G12G19G13
  21659960.768    21659963.938    25470249.009 8 -50114751.702 8
  22518625.389    22518631.174    57679866.885 8 -69186075.650 8
  22783455.402    22783460.770    14113502.167 8 -22092648.542 8
  22050782.725    22050787.789    81953078.961 9-123713452.796 8
 90  2 22  9 18 29.0800000  0  4G 3G12G19G13
  21658002.065    21658005.814    25459956.753 8 -50122771.618 8
  22527666.495    22527673.422    57727375.526 9 -69149055.928 9
  22785247.058    22785250.977    14122913.629 8 -22085314.925 7
  22054567.815    22054572.656    81972967.481 9-123697955.258 8
 90  2 22  9 18 44.0800000  0  4G 3G12G19G13
  21656048.716    21656051.527    25449690.131 8 -50130771.585 7
  22536719.907    22536726.264    57774952.497 9 -69111982.994 8
  22787061.445    22787065.479    14132449.823 8 -22077884.143 8
  22058354.892    22058360.064    81992868.222 9-123682448.186 7
 90  2 22  9 18 59.0800000  0  4G 3G12G19G13
  21654099.466    21654103.624    25439449.514 8 -50138751.295 7
  22545786.869    22545793.120    57822597.443 9 -69074857.077 8
  22788899.193    22788903.279    14142110.652 9 -22070356.237 8
  22062145.492    22062148.458    82012781.151 8-123666931.622 7
 90  2 22  9 19 14.0800000  0  4G 3G12G19G13
  21652155.956    21652160.388    25429234.552 8 -50146711.009 7
  22554866.106    22554871.419    57870309.722 9 -69037678.691 8
  22790761.528    22790765.869    14151895.637 8 -22062731.569 8
  22065935.982    22065940.502    82032705.943 9-123651405.811 8
 90  2 22  9 19 29.0800000  0  4G 3G12G19G13
  21650215.697    21650220.958    25419045.254 8 -50154650.709 8
  22563958.596    22563963.721    57918088.955 9 -69000448.131 8
  22792648.347    22792651.492    14161804.840 7 -22055010.133 7
  22069728.751    22069735.031    82052642.755 9-123635870.650 7
 90  2 22  9 19 44.0800000  0  4G 3G12G19G13
  21648283.456    21648285.924    25408881.399 8 -50162570.592 7
  22573062.334    22573069.216    57965934.560 9 -68963165.849 8
  22794555.867    22794561.724    14171837.677 8 -22047192.340 7
  22073525.529    22073530.493    82072591.539 9-123620326.155 7
 90  2 22  9 19 59.0800000  0  4G 3G12G19G13
  21646353.074    21646357.744    25398743.078 8 -50170470.587 8
  22582181.142    22582185.484    58013846.309 9 -68925832.034 8
  22796489.222    22796494.592    14181994.284 8 -22039278.118 7
  22077324.437    22077329.406    82092552.421 9-123604772.228 8
 90  2 22  9 20 14.0800000  0  4G 3G12G19G13
  21644428.483    21644433.239    25388630.423 8 -50178350.580 8
  22591310.213    22591316.040    58061823.827 9 -68888446.972 9
  22798444.489    22798449.494    14192274.497 7 -22031267.574 8
  22081125.753    22081129.017    82112525.283 9-123589208.969 7
 90  2 22  9 20 29.0800000  0  4G 3G12G19G13
  21642509.953    21642513.559    25378543.323 8 -50186210.655 7
  22600452.090    22600457.881    58109866.665 9 -68851011.001 8
  22800425.119    22800430.255    14202678.108 8 -22023160.873 8
  22084927.199    22084932.676    82132510.069 8-123573636.410 7
 90  2 22  9 20 44.0800000  0  4G 3G12G19G13
  21640593.791    21640597.412    25368481.704 8 -50194050.867 6
  22609606.919    22609612.395    58157974.409 9 -68813524.454 8
  22802428.367    22802434.006    14213204.665 9 -22014958.366 8
  22088732.852    22088737.678    82152506.928 9-123558054.449 7
 90  2 22  9 20 59.0800000  0  4G 3G12G19G13
  21638684.318    21638689.223    25358445.612 8 -50201871.196 8
  22618772.921    22618779.930    58206146.641 9 -68775987.679 9
  22804453.491    22804459.878    14223854.230 8 -22006660.010 9
  22092540.643    22092545.829    82172515.941 7-123542463.013 7
 90  2 22  9 21 14.0800000  0  4G 3G12G19G13
  21636779.310    21636784.830    25348435.025 9 -50209671.641 7
  22627951.753    22627958.443    58254382.870 9 -68738401.026 9
  22806505.583    22806509.660    14234626.721 8 -21998265.880 9
  22096350.683    22096355.938    82192537.089 9-123526862.132 7
 90  2 22  9 21 29.0800000  0  4G 3G12G19G13
  21634880.013    21634884.538    25338449.844 9 -50217452.308 7
  22637144.286    22637150.235    58302682.809 9 -68700764.722 9
  22808578.519    22808583.059    14245521.988 7 -21989776.063 8
  22100163.310    22100167.335    82212570.531 8-123511251.648 8
 90  2 22  9 21 44.0800000  0  4G 3G12G19G13
  21632985.059    21632988.582    25328490.011 8 -50225213.224 8
  22646346.403    22646354.157    58351045.912 9 -68663079.208 8
  22810674.597    22810679.631    14256539.771 8 -21981190.779 8
  22103976.853    22103982.612    82232616.161 8-123495631.684 7
 90  2 22  9 21 59.0800000  0  4G 3G12G19G13
  21631093.302    21631097.866    25318555.659 7 -50232954.269 7
  22655561.278    22655567.269    58399471.722 9 -68625344.827 8
  22812795.486    22812798.927    14267679.860 8 -21972510.193 8
  22107793.687    22107798.765    82252674.092 8-123480002.137 7
 90  2 22  9 22 14.0800000  0  4G 3G12G19G13
  21629209.432    21629211.712    25308646.698 8 -50240675.532 8
  22664789.774    22664795.647    58447959.752 9 -68587561.971 8
  22814938.042    22814941.756    14278941.704 8 -21963734.742 8
  22111613.794    22111618.025    82272744.271 9-123464363.034 7
 90  2 22  9 22 29.0800000  0  4G 3G12G19G13
  21627326.079    21627332.845    25298762.930 9 -50248377.179 7
  22674028.057    22674033.993    58496509.544 9 -68549730.980 9
  22817104.606    22817107.598    14290325.519 7 -21954864.245 8
  22115435.035    22115440.216    82292826.495 9-123448714.559 7
 90  2 22  9 22 44.0800000  0  4G 3G12G19G13
  21625451.671    21625455.647    25288904.642 8 -50256058.953 8
  22683278.704    22683284.771    58545120.983 9 -68511851.945 9
  22819293.617    22819296.644    14301831.319 7 -21945898.694 7
  22119258.145    22119264.137    82312921.087 9-123433056.451 7
 90  2 22  9 22 59.0800000  0  4G 3G12G19G13
  21623580.660    21623585.217    25279071.569 9 -50263721.076 7
  22692539.020    22692546.334    58593793.314 9 -68473925.469 9
  22821506.496    22821511.259    14313458.415 7 -21936838.634 8
  22123085.420    22123091.439    82333027.843 8-123417388.856 7
 90  2 22  9 23 14.0800000  0  4G 3G12G19G13
  21621714.913    21621717.413    25269263.626 9 -50271363.623 8
  22701813.856    22701819.811    58642526.277 9 -68435951.751 8
  22823741.717    22823746.365    14325206.802 7 -21927684.058 7
  22126913.331    22126918.485    82353146.917 9-123401711.650 7
 90  2 22  9 23 29.0800000  0  4G 3G12G19G13
  21619852.248    21619857.551    25259480.956 8 -50278986.486 8
  22711098.603    22711105.958    58691319.318 9 -68397931.230 9
  22825999.010    22826004.909    14337076.040 7 -21918435.315 8
  22130745.952    22130749.845    82373278.305 8-123386024.862 8
 90  2 22  9 23 44.0800000  0  4G 3G12G19G13
  21617996.263    21617999.309    25249723.534 8 -50286589.657 8
  22720396.041    22720400.228    58740172.125 9 -68359864.103 8
  22828281.279    22828287.527    14349066.228 7 -21909092.325 7
  22134578.520    22134581.967    82393421.932 9-123370328.545 7
 90  2 22  9 23 59.0800000  0  4G 3G12G19G13
  21616142.403    21616148.612    25239991.006 9 -50294173.460 8
  22729702.842    22729708.844    58789083.954 8 -68321751.013 8
  22830586.940    22830592.028    14361176.848 8 -21899655.492 7
  22138413.758    22138418.730    82413577.497 9-123354622.918 7
 90  2 22  9 24 14.0800000  0  4G 3G12G19G13
  21614296.921    21614300.459    25230283.910 8 -50301737.425 8
  22739021.483    22739028.482    58838054.892 8 -68283591.872 8
  22832914.855    22832919.281    14373408.066 8 -21890124.669 8
  22142250.922    22142256.542    82433745.759 9-123338907.396 7
 90  2 22  9 24 29.0800000  0  4G 3G12G19G13
  21612453.284    21612457.228    25220602.090 9 -50309281.703 7
  22748352.098    22748358.578    58887084.379 9 -68245387.090 8
  22835265.103    22835269.245    14385759.873 8 -21880499.898 8
  22146090.883    22146096.482    82453926.511 8-123323182.142 8
 90  2 22  9 24 44.0800000  0  4G 3G12G19G13
  21610616.416    21610620.497    25210945.398 9 -50316806.389 8
  22757693.478    22757698.270    58936171.839 9 -68207137.129 8
  22837638.558    22837641.801    14398231.789 8 -21870781.539 7
  22149933.465    22149937.865    82474119.351 8-123307447.476 8
 90  2 22  9 24 59.0800000  0  4G 3G12G19G13
  21608783.707    21608786.955    25201313.754 8 -50324311.573 8
  22767045.011    22767050.884    58985316.782 8 -68168842.382 8
  22840035.600    22840039.312    14410823.505 9 -21860969.823 8
  22153779.538    22153783.706    82494324.460 9-123291703.234 8
 90  2 22  9 25 14.0800000  0  4G 3G12G19G13
  21606955.739    21606960.288    25191707.127 9 -50331797.238 7
  22776408.679    22776412.963    59034518.786 9 -68130503.184 9
  22842452.917    22842457.698    14423534.585 8 -21851065.097 7
  22157627.086    22157631.162    82514541.908 9-123275949.396 7
 90  2 22  9 25 29.0800000  0  4G 3G12G19G13
  21605132.680    21605134.597    25182125.346 8 -50339263.552 8
  22785780.000    22785786.874    59083777.373 8 -68092119.890 8
  22844894.725    22844898.436    14436364.887 8 -21841067.479 8
  22161475.966    22161478.898    82534771.804 9-123260185.856 8
 90  2 22  9 25 44.0800000  0  4G 3G12G19G13
  21603314.532    21603317.240    25172568.891 8 -50346710.146 7
  22795164.763    22795173.075    59133092.351 7 -68053692.660 7
  22847359.027    22847362.630    14449314.748 9 -21830976.677 8
  22165327.285    22165332.650    82555014.184 9-123244412.590 7
 90  2 22  9 25 59.0800000  0  4G 3G12G19G13
  21601499.869    21601505.341    25163037.635 8 -50354137.085 8
  22804560.763    22804567.448    59182463.272 9 -68015221.838 8
  22849844.457    22849850.671    14462384.133 8 -21820792.762 8
  22169183.312    22169187.512    82575269.296 8-123228629.378 8
 90  2 22  9 26 14.0800000  0  4G 3G12G19G13
  21599691.187    21599695.514    25153531.453 8 -50361544.500 7
  22813965.666    22813972.005    59231889.529 9 -67976707.847 7
  22852356.007    22852359.395    14475572.177 8 -21810516.382 7
  22173039.184    22173043.181    82595536.820 8-123212836.512 7
 90  2 22  9 26 29.0800000  0  4G 3G12G19G13
  21597885.821    21597890.832    25144050.119 8 -50368932.561 8
  22823382.469    22823388.651    59281370.781 8 -67938151.056 8
  22854886.903    22854891.468    14488878.786 8 -21800147.596 8
  22176898.259    22176902.513    82615816.627 9-123197034.073 8
 90  2 22  9 26 44.0800000  0  4G 3G12G19G13
  21596088.479    21596091.451    25134593.888 8 -50376301.038 8
  22832809.075    22832815.151    59330906.708 9 -67899551.658 9
  22857442.172    22857445.643    14502303.956 8 -21789686.424 8
  22180760.250    22180765.514    82636109.015 9-123181221.833 7
 90  2 22  9 26 59.0800000  0  4G 3G12G19G13
  21594292.036    21594296.860    25125162.877 8 -50383649.864 7
  22842245.243    22842251.752    59380496.967 8 -67860909.920 7
  22860019.392    22860023.897    14515847.511 9 -21779133.020 8
  22184623.658    22184629.053    82656413.989 8-123165399.783 7
 90  2 22  9 27 14.0800000  0  4G 3G12G19G13
  21592502.702    21592506.201    25115756.375 8 -50390979.627 8
  22851690.888    22851698.260    59430140.465 9 -67822226.701 8
  22862619.897    22862624.221    14529508.653 8 -21768487.989 8
  22188491.043    22188496.513    82676731.233 9-123149568.179 7
 90  2 22  9 27 29.0800000  0  4G 3G12G19G13
  21590718.921    21590722.105    25106374.564 9 -50398290.127 8
  22861149.227    22861153.557    59479836.850 9 -67783502.247 7
  22865241.763    22865244.894    14543287.289 9 -21757751.391 8
  22192358.300    22192362.937    82697060.705 9-123133727.051 7
 90  2 22  9 27 44.0800000  0  4G 3G12G19G13
  21588936.657    21588940.919    25097017.768 8 -50405581.122 7
  22870616.048    22870621.945    59529586.129 9 -67744736.568 8
  22867885.348    22867889.680    14557183.479 8 -21746923.201 7
  22196229.064    22196235.250    82717402.893 9-123117875.998 7
 90  2 22  9 27 59.0800000  0  4G 3G12G19G13
  21587160.916    21587164.942    25087685.995 9 -50412852.636 8
  22880093.118    22880098.944    59579387.707 9 -67705930.162 8
  22870551.581    22870556.663    14571196.908 8 -21736003.666 7
  22200102.767    22200107.255    82737757.853 9-123102014.991 8
 90  2 22  9 28 14.0800000  0  4G 3G12G19G13
  21585390.819    21585394.185    25078379.200 9 -50420104.693 7
  22889580.509    22889585.366    59629241.200 9 -67667083.301 7
  22873241.500    22873244.909    14585327.330 8 -21724992.947 7
  22203977.991    22203982.957    82758125.610 8-123086144.026 7
 90  2 22  9 28 29.0800000  0  4G 3G12G19G13
  21583624.446    21583626.285    25069097.143 9 -50427337.466 8
  22899077.452    22899082.597    59679146.095 9 -67628196.380 8
  22875952.626    22875956.473    14599574.692 9 -21713891.110 7
  22207857.252    22207862.093    82778506.136 8-123070263.110 8
 90  2 22  9 28 44.0800000  0  4G 3G12G19G13
  21581862.257    21581867.395    25059840.197 9 -50434550.655 7
  22908583.308    22908589.142    59729102.044 9 -67589269.668 7
  22878686.216    22878689.508    14613938.829 9 -21702698.286 8
  22211737.676    22211743.759    82798899.311 9-123054372.338 7
 90  2 22  9 28 59.0800000  0  4G 3G12G19G13
  21580105.855    21580110.306    25050608.044 8 -50441744.548 8
  22918098.580    22918104.183    59779108.601 9 -67550303.528 8
  22881441.803    22881445.549    14628418.976 9 -21691415.070 8
  22215621.999    22215625.963    82819305.306 9-123038471.573 8
 90  2 22  9 29 14.0800000  0  4G 3G12G19G13
  21578351.632    21578357.243    25041400.651 8 -50448919.127 8
  22927624.495    22927631.271    59829165.328 9 -67511298.303 9
  22884219.277    22884222.861    14643015.371 9 -21680041.270 8
  22219506.715    22219511.704    82839724.063 9-123022560.863 7
 90  2 22  9 29 29.0800000  0  4G 3G12G19G13
  21576606.003    21576608.907    25032218.213 9 -50456074.274 8
  22937159.820    22937165.539    59879271.927 9 -67472254.200 8
  22887019.823    22887022.680    14657727.823 8 -21668577.019 7
  22223395.272    22223398.968    82860155.618 9-123006640.180 8
 90  2 22  9 29 44.0800000  0  4G 3G12G19G13
  21574862.601    21574866.678    25023060.914 9 -50463209.819 8
  22946704.108    22946710.097    59929428.173 8 -67433171.430 9
  22889840.633    22889844.571    14672556.263 9 -21657022.399 7
  22227286.294    22227290.147    82880600.193 9-122990709.348 7
 90  2 22  9 29 59.0800000  0  4G 3G12G19G13
  21573124.549    21573129.052    25013928.282 9 -50470326.162 7
  22956257.890    22956264.844    59979633.191 9 -67394050.671 9
  22892684.023    22892688.634    14687500.063 8 -21645377.894 8
  22231178.466    22231183.638    82901057.390 8-122974768.686 7
 90  2 22  9 30 14.0800000  0  4G 3G12G19G13
  21571391.507    21571395.442    25004820.463 9 -50477423.158 8
  22965821.097    22965826.348    60029886.770 9 -67354892.064 9
  22895549.115    22895554.203    14702559.173 9 -21633643.545 8
  22235072.984    22235079.075    82921527.631 9-122958817.877 7
 90  2 22  9 30 29.0800000  0  4G 3G12G19G13
  21569662.148    21569667.340    24995737.623 8 -50484500.702 7
  22975392.642    22975398.957    60080188.398 9 -67315695.988 8
  22898438.601    22898441.468    14717733.407 8 -21621819.474 8
  22238971.561    22238976.076    82942010.827 9-122942856.943 8
 90  2 22  9 30 44.0800000  0  4G 3G12G19G13
  21567939.872    21567944.023    24986679.482 9 -50491558.975 8
  22984973.464    22984979.942    60130537.604 8 -67276462.869 9
  22901346.781    22901351.995    14733022.235 9 -21609906.115 7
  22242870.761    22242876.423    82962506.876 9-122926886.013 7
 90  2 22  9 30 59.0800000  0  4G 3G12G19G13
  21566222.399    21566224.688    24977646.306 9 -50498597.813 8
  22994563.401    22994569.345    60180934.072 9 -67237192.913 7
  22904278.248    22904281.993    14748425.904 9 -21597903.256 7
  22246774.469    22246779.696    82983015.998 9-122910904.880 8
 90  2 22  9 31 14.0800000  0  4G 3G12G19G13
  21564507.100    21564511.848    24968638.150 9 -50505617.164 7
  23004163.377    23004169.734    60231377.442 8 -67197886.414 8
  22907230.863    22907234.977    14763943.974 8 -21585811.264 7
  22250679.597    22250684.125    83003538.158 9-122894913.611 8
 90  2 22  9 31 29.0800000  0  4G 3G12G19G13
  21562796.963    21562801.341    24959654.619 7 -50512617.313 7
  23013770.267    23013776.292    60281867.019 8 -67158543.914 8
  22910206.711    22910210.397    14779576.182 8 -21573630.334 8
  22254586.876    22254591.347    83024073.349 9-122878912.164 8
 90  2 22  9 31 44.0800000  0  4G 3G12G19G13
  21561092.644    21561096.668    24950696.038 9 -50519598.012 8
  23023387.766    23023393.733    60332402.507 9 -67119165.637 9
  22913201.806    22913206.013    14795322.260 9 -21561360.664 8
  22258497.415    22258502.387    83044621.611 9-122862900.540 7
 90  2 22  9 31 59.0800000  0  4G 3G12G19G13
  21559392.567    21559396.001    24941762.412 8 -50526559.277 8
  23033012.098    23033018.382    60382983.485 8 -67079751.916 8
  22916221.153    22916224.318    14811182.113 9 -21549002.337 8
  22262409.826    22262414.269    83065183.127 8-122846878.574 8
 90  2 22  9 32 14.0800000  0  4G 3G12G19G13
  21557696.747    21557701.436    24932853.641 9 -50533501.186 7
  23042645.608    23042651.931    60433609.611 8 -67040302.993 9
  22919260.100    22919263.804    14827155.447 8 -21536555.587 8
  22266324.959    22266330.512    83085757.907 9-122830846.293 8
 90  2 22  9 32 29.0800000  0  4G 3G12G19G13
  21556006.925    21556011.056    24923969.785 8 -50540423.665 7
  23052288.344    23052294.998    60484280.413 9 -67000819.275 9
  22922321.744    22922325.375    14843241.937 9 -21524020.662 7
  22270243.030    22270248.867    83106345.990 9-122814803.642 7
 90  2 22  9 32 44.0800000  0  4G 3G12G19G13
  21554320.507    21554325.895    24915110.772 8 -50547326.795 8
  23061938.989    23061945.771    60534995.360 8 -66961301.180 9
  22925403.715    22925406.899    14859441.348 9 -21511397.745 7
  22274163.752    22274168.355    83126947.301 9-122798750.689 7
 90  2 22  9 32 59.0800000  0  4G 3G12G19G13
  21552640.570    21552644.339    24906276.612 9 -50554210.544 8
  23071598.409    23071604.247    60585754.056 9 -66921748.960 8
  22928507.999    22928511.935    14875753.463 8 -21498687.017 8
  22278086.525    22278091.683    83147561.954 9-122782687.334 8
 90  2 22  9 33 14.0800000  0  4G 3G12G19G13
  21550963.736    21550967.687    24897467.339 8 -50561074.912 8
  23081265.222    23081271.978    60636556.040 9 -66882163.009 9
  22931633.491    22931637.489    14892177.953 9 -21485888.708 7
  22282011.124    22282017.153    83168189.922 9-122766613.607 8
 90  2 22  9 33 29.0800000  0  4G 3G12G19G13
  21549291.627    21549296.045    24888682.744 8 -50567920.058 7
  23090942.047    23090947.503    60687400.733 9 -66842543.793 8
  22934779.406    22934783.636    14908714.837 9 -21473002.840 7
  22285939.512    22285944.276    83188831.267 9-122750529.448 8
 90  2 22  9 33 44.0800000  0  4G 3G12G19G13
  21547624.912    21547628.957    24879923.117 8 -50574745.733 8
  23100625.044    23100630.844    60738287.887 8 -66802891.467 8
  22937948.472    22937952.911    14925363.745 9 -21460029.663 7
  22289870.519    22289875.252    83209486.087 9-122734434.780 8
 90  2 22  9 33 59.0800000  0  4G 3G12G19G13
  21545962.395    21545967.212    24871188.283 8 -50581552.101 8
  23110315.438    23110322.623    60789217.171 9 -66763206.331 8
  22941138.287    22941142.804    14942124.277 8 -21446969.524 8
  22293803.372    22293808.213    83230154.318 9-122718329.691 8
 90  2 22  9 34 14.0800000  0  4G 3G12G19G13
  21544305.301    21544308.824    24862478.148 8 -50588339.211 8
  23120015.576    23120022.056    60840188.049 9 -66723488.791 8
  22944348.880    22944351.943    14958996.058 9 -21433822.694 8
  22297738.612    22297743.676    83250835.776 9-122702214.296 8
 90  2 22  9 34 29.0800000  0  4G 3G12G19G13
  21542652.588    21542655.763    24853792.903 9 -50595106.925 7
  23129722.417    23129728.463    60891200.047 9 -66683739.202 8
  22947581.012    22947585.432    14975978.899 9 -21420589.322 8
  22301676.227    22301682.567    83271530.733 9-122686088.364 7
 90  2 22  9 34 44.0800000  0  4G 3G12G19G13
  21541005.629    21541008.333    24845132.461 9 -50601855.330 7
  23139439.215    23139443.698    60942252.676 9 -66643957.953 9
  22950833.156    22950837.117    14993072.755 8 -21407269.445 6
  22305617.837    22305622.855    83292239.220 9-122669951.880 8
 90  2 22  9 34 59.0800000  0  4G 3G12G19G13
  21539361.019    21539366.251    24836496.875 9 -50608584.359 8
  23149160.457    23149166.626    60993345.497 8 -66604145.387 9
  22954106.462    22954109.986    15010277.128 9 -21393863.442 7
  22309561.064    22309565.816    83312961.360 9-122653804.766 7
 90  2 22  9 35 14.0800000  0  4G 3G12G19G13
  21537723.166    21537725.966    24827886.121 8 -50615294.025 8
  23158890.564    23158896.717    61044478.221 8 -66564301.750 9
  22957402.317    22957405.179    15027592.031 9 -21380371.309 7
  22313507.184    22313511.908    83333697.208 9-122637646.959 8
 90  2 22  9 35 29.0800000  0  4G 3G12G19G13
  21536089.052    21536093.102    24819300.204 8 -50621984.355 7
  23168627.733    23168635.063    61095650.479 9 -66524427.269 8
  22960717.671    22960722.476    15045017.252 8 -21366793.235 7
  22317455.205    22317459.768    83354446.852 9-122621478.415 8
 90  2 22  9 35 44.0800000  0  4G 3G12G19G13
  21534460.833    21534464.357    24810739.054 8 -50628655.377 8
  23178373.954    23178380.093    61146861.681 9 -66484522.456 8
  22964055.206    22964059.637    15062552.539 8 -21353129.368 7
  22321406.840    22321411.023    83375210.035 9-122605299.309 7
 90  2 22  9 35 59.0800000  0  4G 3G12G19G13
  21532835.713    21532839.132    24802202.624 9 -50635307.129 8
  23188126.323    23188131.263    61198111.198 9 -66444587.771 9
  22967412.096    22967417.281    15080197.255 9 -21339380.235 8
  22325360.201    22325364.595    83395986.790 9-122589109.646 7
 90  2 22  9 36 14.0800000  0  4G 3G12G19G13
  21531216.174    21531220.861    24793691.222 9 -50641939.405 8
  23197886.104    23197892.222    61249398.954 9 -66404623.300 8
  22970791.757    22970794.058    15097951.585 8 -21325545.702 7
  22329316.318    22329321.773    83416777.426 9-122572909.169 8
 90  2 22  9 36 29.0800000  0  4G 3G12G19G13
  21529601.044    21529604.838    24785204.714 9 -50648552.270 8
  23207652.845    23207659.255    61300724.458 9 -66364629.440 9
  22974190.354    22974192.741    15115815.147 8 -21311626.034 8
  22333274.764    22333281.940    83437582.158 9-122556697.692 7
 90  2 22  9 36 44.0800000  0  4G 3G12G19G13
  21527990.965    21527994.434    24776743.327 9 -50655145.561 8
  23217426.601    23217433.333    61352087.463 9 -66324606.346 7
  22977610.269    22977614.123    15133787.570 8 -21297621.564 8
  22337236.794    22337242.479    83458400.660 9-122540475.502 7
 90  2 22  9 36 59.0800000  0  4G 3G12G19G13
  21526385.685    21526389.365    24768306.954 8 -50661719.361 8
  23227208.604    23227214.275    61403487.136 9 -66284554.651 7
  22981050.056    22981056.222    15151868.376 8 -21283532.648 6
  22341200.505    22341205.185    83479232.913 9-122524242.575 8
 90  2 22  9 37 14.0800000  0  4G 3G12G19G13
  21524784.855    21524788.246    24759895.308 9 -50668273.879 7
  23236995.016    23237002.478    61454923.236 9 -66244474.584 9
  22984511.765    22984516.812    15170057.520 9 -21269359.281 8
  22345167.721    22345172.473    83500079.319 9-122507998.640 7
 90  2 22  9 37 29.0800000  0  4G 3G12G19G13
  21523188.180    21523192.704    24751508.547 8 -50674809.011 7
  23246790.223    23246795.922    61506395.270 9 -66204366.545 7
  22987994.616    22987999.271    15188354.862 8 -21255101.630 7
  22349138.919    22349141.716    83520939.956 9-122491743.600 7
 90  2 22  9 37 44.0800000  0  4G 3G12G19G13
  21521597.880    21521600.760    24743146.736 8 -50681324.699 7
  23256592.138    23256598.708    61557902.963 9 -66164230.686 8
  22991496.226    22991501.300    15206760.135 9 -21240759.850 7
  22353111.169    22353115.368    83541814.449 9-122475477.779 8
 90  2 22  9 37 59.0800000  0  4G 3G12G19G13
  21520011.962    21520014.893    24734810.038 9 -50687820.838 8
  23266401.545    23266406.993    61609445.990 9 -66124067.293 8
  22995019.797    22995023.913    15225273.409 8 -21226333.936 8
  22357085.626    22357090.994    83562703.124 9-122459200.881 8
 90  2 22  9 38 14.0800000  0  4G 3G12G19G13
  21518429.882    21518433.187    24726498.334 9 -50694297.479 7
  23276216.243    23276221.300    61661023.769 9 -66083876.814 7
  22998562.336    22998566.607    15243894.280 9 -21211824.176 8
  22361062.363    22361067.066    83583606.078 9-122442912.890 7
 90  2 22  9 38 29.0800000  0  4G 3G12G19G13
  21516852.807    21516856.737    24718211.593 8 -50700754.677 7
  23286037.753    23286041.662    61712635.760 8 -66043659.678 7
  23002127.558    23002132.681    15262622.036 9 -21197231.119 8
  22365042.281    22365047.546    83604523.230 8-122426613.819 8
 90  2 22  9 38 44.0800000  0  4G 3G12G19G13
  21515280.638    21515284.351    24709949.737 9 -50707192.488 7
  23295865.311    23295871.100    61764281.299 8 -66003416.431 8
  23005710.189    23005716.430    15281456.411 8 -21182554.981 8
  22369026.396    22369031.643    83625454.330 9-122410303.880 7
 90  2 22  9 38 59.0800000  0  4G 3G12G19G13
  21513713.428    21513716.441    24701712.749 8 -50713610.923 8
  23305699.280    23305705.570    61815960.212 9 -65963147.177 8
  23009315.551    23009319.870    15300397.358 8 -21167795.822 8
  22373012.292    22373016.095    83646399.881 9-122393982.675 7
 90  2 22  9 39 14.0800000  0  4G 3G12G19G13
  21512150.644    21512154.370    24693500.975 9 -50720009.701 7
  23315539.133    23315544.648    61867672.170 8 -65922852.148 7
  23012939.755    23012943.441    15319444.733 8 -21152953.723 7
  22377000.290    22377006.430    83667359.775 9-122377650.309 7
 90  2 22  9 39 29.0800000  0  4G 3G12G19G13
  21510592.683    21510596.961    24685314.298 9 -50726388.932 7
  23325385.593    23325392.214    61919416.598 8 -65882531.820 8
  23016583.945    23016588.991    15338598.181 8 -21138028.954 6
  22380991.994    22380996.640    83688334.047 9-122361306.714 8
 90  2 22  9 39 44.0800000  0  4G 3G12G19G13
  21509038.937    21509043.473    24677152.690 8 -50732748.630 8
  23335238.571    23335244.898    61971193.250 8 -65842186.403 8
  23020249.104    23020253.081    15357857.319 8 -21123021.844 8
  22384985.526    22384990.903    83709322.727 9-122344951.904 8
 90  2 22  9 39 59.0800000  0  4G 3G12G19G13
  21507490.892    21507495.667    24669016.166 9 -50739088.777 8
  23345099.175    23345102.615    62023001.634 8 -65801816.250 8
  23023934.675    23023939.232    15377221.983 9 -21107932.496 8
  22388981.760    22388987.500    83730326.192 8-122328585.581 8
 90  2 22  9 40 14.0800000  0  4G 3G12G19G13
  21505947.124    21505951.377    24660904.679 9 -50745409.417 8
  23354962.826    23354968.722    62074841.101 8 -65761421.873 8
  23027639.497    23027644.261    15396691.541 8 -21092761.417 8
  22392981.715    22392989.219    83751344.244 9-122312207.902 7
 90  2 22  9 40 29.0800000  0  4G 3G12G19G13
  21504408.975    21504413.930    24652818.105 8 -50751710.645 7
  23364834.169    23364839.329    62126711.029 8 -65721003.787 8
  23031363.760    23031368.070    15416265.862 9 -21077508.706 8
  22396984.803    22396990.167    83772376.603 9-122295819.053 8
 90  2 22  9 40 44.0800000  0  4G 3G12G19G13
  21502874.171    21502878.927    24644756.585 9 -50757992.336 8
  23374709.859    23374715.533    62178611.442 8 -65680561.934 8
  23035109.385    23035113.363    15435945.000 8 -21062174.323 7
  22400990.192    22400995.482    83793423.650 9-122279418.751 7
 90  2 22  9 40 59.0800000  0  4G 3G12G19G13
  21501344.465    21501349.609    24636720.248 8 -50764254.429 8
  23384591.905    23384596.767    62230541.825 9 -65640096.698 9
  23038873.825    23038878.959    15455728.417 8 -21046758.678 8
  22404998.426    22405002.411    83814485.260 9-122263007.115 8
 90  2 22  9 41 14.0800000  0  4G 3G12G19G13
  21499820.444    21499824.392    24628709.227 9 -50770496.781 8
  23394478.559    23394485.900    62282501.820 7 -65599608.402 8
  23042658.065    23042661.584    15475615.860 8 -21031261.998 7
  22409009.312    22409012.602    83835561.512 8-122246584.068 7
 90  2 22  9 41 29.0800000  0  4G 3G12G19G13
  21498300.912    21498305.222    24620723.115 9 -50776719.722 7
  23404372.502    23404378.347    62334491.020 8 -65559097.374 8
  23046460.848    23046466.931    15495607.052 8 -21015684.454 8
  22413022.036    22413026.788    83856652.459 8-122230149.572 8
 90  2 22  9 41 44.0800000  0  4G 3G12G19G13
  21496786.378    21496789.587    24612762.200 8 -50782923.041 8
  23414269.919    23414278.739    62386508.964 6 -65518563.952 6
  23050286.200    23050289.855    15515701.933 5 -21000026.108 4
  22417038.644    22417043.535    83877758.330 9-122213703.457 7
 90  2 22  9 41 59.0800000  0  4G 3G12G19G13
  21495276.690    21495279.180    24604826.677 9 -50789106.563 7
  23424174.255    23424181.706    62438555.333 7 -65478008.380 9
  23054130.185    23054135.084    15535900.063 4 -20984287.319 1
  22421057.860    22421060.770    83898879.324 9-122197245.540 7
 90  2 22  9 42 14.0800000  0  4G 3G12G19G13
  21493770.922    21493775.327    24596916.491 8 -50795270.333 8
  23434085.180    23434091.271    62490629.641 8 -65437431.016 8
  23057991.471    23057996.613    15556201.162 3 -20968468.289 3
  22425078.901    22425085.301    83920015.267 9-122180775.988 7
 90  2 22  9 42 29.0800000  0  4G 3G12G19G13
  21492270.563    21492273.705    24589031.458 8 -50801414.505 8
  23443999.103    23444005.440    62542731.109 8 -65396832.485 9
  23061875.140    23061880.802    15576604.966 3 -20952569.230 5
  22429104.727    22429108.806    83941166.307 9-122164294.658 8
 90  2 22  9 42 44.0800000  0  4G 3G12G19G13
  21490776.171    21490779.444    24581171.724 9 -50807538.984 7
  23453918.690    23453925.012    62594859.434 8 -65356213.053 8
  23065776.426    23065781.834    15597111.199 8 -20936590.346 7
  22433131.103    22433136.473    83962332.455 6-122147801.574 5
 90  2 22  9 42 59.0800000  0  4G 3G12G19G13
  21489284.180    21489288.257    24573337.308 9 -50813643.717 8
  23463844.389    23463850.669    62647014.502 8 -65315572.751 8
  23069698.901    23069702.959    15617719.601 9 -20920531.866 7
  22437163.962    22437167.396    83983513.791 4-122131296.640 6
 90  2 22  9 43 14.0800000  0  4G 3G12G19G13
  21487798.473    21487802.200    24565528.444 8 -50819728.553 8
  23473773.353    23473780.219    62699195.820 8 -65274912.010 9
  23073641.092    23073643.929    15638429.957 8 -20904393.916 7
  22441195.819    22441200.027    84004710.261 4-122114779.919 6
 90  2 22  9 43 29.0800000  0  4G 3G12G19G13
  21486317.181    21486321.135    24557745.039 8 -50825793.534 8
  23483707.395    23483714.217    62751403.039 8 -65234231.072 9
  23077601.209    23077606.410    15659242.196 7 -20888176.601 8
  22445232.604    22445238.217    84025922.143 9-122098251.178 8
 90  2 22  9 43 44.0800000  0  4G 3G12G19G13
  21484839.724    21484845.329    24549987.100 8 -50831838.672 9
  23493648.277    23493654.617    62803635.496 9 -65193530.481 9
  23081579.765    23081584.503    15680155.480 8 -20871880.544 8
  22449270.966    22449276.991    84047149.471 8-122081710.413 8
 90  2 22  9 43 59.0800000  0  4G 3G12G19G13
  21483368.681    21483372.689    24542254.700 8 -50837863.919 9
  23503592.359    23503599.191    62855892.744 9 -65152810.583 9
  23085579.403    23085583.260    15701169.622 8 -20855505.903 8
  22453315.048    22453319.398    84068392.055 8-122065157.759 8
 90  2 22  9 44 14.0800000  0  4G 3G12G19G13
  21481902.393    21481906.217    24534547.662 8 -50843869.406 9
  23513541.319    23513547.526    62908174.472 9 -65112071.594 9
  23089597.624    23089601.372    15722284.808 7 -20839052.539 7
  22457358.953    22457365.572    84089650.071 8-122048593.088 7
 90  2 22  9 44 29.0800000  0  4G 3G12G19G13
  21480440.739    21480445.087    24526866.124 9 -50849855.015 8
  23523494.528    23523500.279    62960480.113 9 -65071313.966 9
  23093634.791    23093639.850    15743500.518 7 -20822520.813 8
  22461408.836    22461412.657    84110923.610 8-122032016.291 8
 90  2 22  9 44 44.0800000  0  4G 3G12G19G13
  21478983.002    21478988.748    24519210.241 9 -50855820.639 9
  23533452.963    23533459.607    63012809.466 9 -65030537.856 8
  23097691.056    23097695.375    15764816.470 7 -20805910.995 8
  22465459.853    22465462.989    84132212.804 8-122015427.339 8
 90  2 22  9 44 59.0800000  0  4G 3G12G19G13
  21477532.370    21477535.152    24511579.879 9 -50861766.383 7
  23543415.898    23543420.882    63065162.137 9 -64989743.578 8
  23101766.825    23101770.261    15786232.442 1 -20789223.227 1
  22469514.359    22469517.819    84153517.660 8-121998826.158 7
 90  2 22  9 45 14.0800000  0  4G 3G12G19G13
  21476083.517    21476088.640    24503975.254 8 -50867692.063 8
  23553381.343    23553388.901    63117537.392 9 -64948931.705 8
  23105861.260    23105863.124    15807747.784 1 -20772458.051 1
  22473569.127    22473576.255    84174838.171 8-121982212.776 8
 90  2 22  9 45 29.0800000  0  4G 3G12G19G13
  21474642.553    21474646.204    24496396.110 9 -50873597.887 9
  23563352.253    23563358.232    63169934.877 9 -64908102.512 8
  23109972.731    23109978.143    15829362.489 1 -20755615.431 1
  22477629.712    22477635.801    84196174.569 8-121965587.017 7
 90  2 22  9 45 44.0800000  0  4G 3G12G19G13
  21473206.191    21473208.379    24488842.509 1 -50879483.812 1
  23573328.703    23573333.851    63222354.148 6 -64867256.363 4
  23114105.061    23114109.903    15851076.260 4 -20738695.619 4
  22481693.324    22481697.268    84217526.483 3-121948949.180 3
 90  2 22  9 45 59.0800000  0  4G 3G12G19G13
  21471776.442    21471780.408    24481314.584 1 -50885349.737 1
  23583307.096    23583312.697    63274794.845 9 -64826393.504 9
  23118255.896    23118260.992    15872888.658 7 -20721698.959 8
  22485758.983    22485764.920    84238894.046 2-121932299.136 3
 90  2 22  9 46 14.0800000  0  3G 3G19G13
  21470344.068    21470348.384    24473812.203 9 -50891195.738 8
  23122425.995    23122432.170    15894799.457 8 -20704625.621 8
  22489829.129    22489834.039    84260277.434 8-121915636.771 7
 90  2 22  9 46 29.0800000  0  3G 3G19G13
  21468921.933    21468926.227    24466335.795 8 -50897021.507 8
  23126613.750    23126618.055    15916808.084 2 -20687476.042 2
  22493900.351    22493906.320    84281676.847 9-121898961.908 8
 90  2 22  9 46 44.0800000  0  4G 3G16G19G13
  21467504.376    21467507.592    24458885.206 9 -50902827.175 8
                  23680578.039   -17994965.954 6
  23130824.462    23130828.651    15938914.654 1 -20670250.160 1
  22497975.883    22497981.153    84303092.288 8-121882274.560 7
 90  2 22  9 46 59.0800000  0  4G 3G16G19G13
  21466090.289    21466095.492    24451460.366 1 -50908612.759 1
  23670612.451    23670619.398   -18047287.342 7  22942688.301 9
  23135045.734    23135051.555    15961118.545 8 -20652948.425 8
  22502054.264    22502059.544    84324523.781 8-121865574.698 8
 90  2 22  9 47 14.0800000  0  4G 3G16G19G13
  21464684.728    21464687.854    24444061.255 3 -50914378.287 3
  23660660.615    23660665.945   -18099592.777 8  22901931.342 9
  23139288.904    23139293.744    15983419.543 7 -20635571.038 7
  22506135.789    22506141.571    84345971.387 8-121848862.290 7
 90  2 22  9 47 29.0800000  0  4G 3G16G19G13
  21463281.222    21463283.706    24436688.042 3 -50920123.659 4
  23650709.759    23650716.112   -18151882.193 8  22861186.365 9
  23143550.791    23143557.146    16005817.525 8 -20618118.082 9
  22510219.459    22510226.016    84367435.244 9-121832137.216 7
 90  2 22  9 47 44.0800000  0  4G 3G16G19G13
  21461883.549    21461885.554    24429340.742 9 -50925848.841 9
  23640762.404    23640768.183   -18204155.021 7  22820454.321 8
  23147832.104    23147835.832    16028312.149 8 -20600589.808 6
  22514307.997    22514313.181    84388915.344 9-121815399.498 8
 90  2 22  9 47 59.0800000  0  4G 3G16G19G13
  21460490.568    21460493.421    24422019.418 9 -50931553.759 8
  23630818.860    23630824.854   -18256411.066 8  22779735.364 7
  23152131.756    23152135.685    16050903.053 8 -20582986.519 8
  22518399.109    22518404.318    84410411.664 8-121798649.113 7
 90  2 22  9 48 14.0800000  0  4G 3G16G19G13
  21459100.680    21459105.111    24414723.988 9 -50937238.524 7
  23620878.956    23620883.600   -18308650.098 8  22739029.629 9
  23156448.222    23156453.823    16073589.972 8 -20565308.419 7
  22522492.853    22522498.251    84431924.375 9-121781885.978 7
 90  2 22  9 48 29.0800000  0  4G 3G16G19G13
  21457717.030    21457721.293    24407454.374 9 -50942903.156 8
  23610940.379    23610947.282   -18360871.697 8  22698337.505 7
  23160784.534    23160788.601    16096372.162 9 -20547556.076 7
  22526589.062    22526593.585    84453453.377 9-121765110.134 7
 90  2 22  9 48 44.0800000  0  4G 3G16G19G13
  21456338.503    21456342.381    24400210.705 9 -50948547.576 8
  23601006.352    23601011.867   -18413075.512 8  22657659.243 8
  23165138.370    23165141.070    16119249.824 8 -20529729.333 8
  22530688.529    22530694.098    84474998.800 8-121748321.509 7
 90  2 22  9 48 59.0800000  0  4G 3G16G19G13
  21454964.948    21454970.420    24392993.279 8 -50954171.533 8
  23591074.390    23591081.875   -18465260.946 8  22616995.277 8
  23169509.101    23169513.090    16142222.851 8 -20511828.293 8
  22534792.234    22534798.246    84496560.991 9-121731519.821 7
 90  2 22  9 49 14.0800000  0  4G 3G16G19G13
  21453596.599    21453601.562    24385802.001 9 -50959775.123 8
  23581148.040    23581154.557   -18517427.652 8  22576345.916 8
  23173899.482    23173903.275    16165290.582 8 -20493853.440 8
  22538899.144    22538903.440    84518140.039 9-121714704.991 8
 90  2 22  9 49 29.0800000  0  4G 3G16G19G13
  21452233.987    21452237.505    24378637.052 9 -50965358.201 7
  23571225.266    23571230.188   -18569575.524 8  22535711.257 8
  23178306.793    23178311.281    16188452.861 8 -20475804.913 8
  22543008.199    22543013.755    84539735.719 9-121697877.187 7
 90  2 22  9 49 44.0800000  0  4G 3G16G19G13
  21450874.538    21450879.383    24371498.328 9 -50970920.859 8
  23561305.978    23561310.906   -18621703.892 9  22495091.765 8
  23182731.065    23182737.376    16211709.448 9 -20457682.901 7
  22547120.776    22547125.931    84561348.127 8-121681036.366 8
 90  2 22  9 49 59.0800000  0  4G 3G16G19G13
  21449521.191    21449525.087    24364385.730 8 -50976463.129 9
  23551389.636    23551394.476   -18673812.665 9  22454487.534 8
  23187176.445    23187181.946    16235059.903 8 -20439487.765 6
  22551236.702    22551241.127    84582977.245 8-121664182.506 8
 90  2 22  9 50 14.0800000  0  4G 3G16G19G13
  21448172.516    21448177.324    24357299.425 9 -50981984.934 8
  23541477.472    23541483.316   -18725901.393 8  22413898.931 9
  23191637.152    23191639.633    16258503.880 8 -20421219.738 7
  22555355.145    22555360.054    84604623.440 9-121647315.355 8
 90  2 22  9 50 29.0800000  0  4G 3G16G19G13
  21446830.350    21446833.998    24350239.655 9 -50987486.057 8
  23531569.222    23531574.680   -18777969.807 9  22373326.188 8
  23196115.932    23196121.482    16282041.159 8 -20402879.028 7
  22559477.622    22559482.704    84626286.585 8-121630434.994 9
 90  2 22  9 50 44.0800000  0  4G 3G16G19G13
  21445491.298    21445495.164    24343206.059 8 -50992966.789 8
  23521665.936    23521670.314   -18830017.567 9  22332769.502 8
  23200611.978    23200617.390    16305671.434 8 -20384465.833 7
  22563603.191    22563609.276    84647966.710 8-121613541.403 8
 90  2 22  9 50 59.0800000  0  4G 3G16G19G13
  21444157.814    21444161.765    24336198.910 9 -50998426.911 8
  23511765.185    23511769.219   -18882044.256 9  22292229.242 9
  23205126.135    23205130.098    16329394.623 8 -20365980.238 7
  22567732.508    22567739.423    84669663.946 8-121596634.486 8
 90  2 22  9 51 14.0800000  0  4G 3G16G19G13
  21442829.895    21442833.569    24329218.108 9 -51003866.499 8
  23501869.011    23501873.769   -18934049.630 9  22251705.588 7
  23209659.890    23209664.427    16353210.002 8 -20347422.806 8
  22571865.604    22571869.972    84691378.084 9-121579714.377 8
 90  2 22  9 51 29.0800000  0  4G 3G16G19G13
  21441505.111    21441509.703    24322263.748 9 -51009285.486 8
  23491976.178    23491981.059   -18986033.192 8  22211198.926 8
  23214208.211    23214213.976    16377117.208 8 -20328793.825 7
  22576000.416    22576005.487    84713109.412 9-121562780.887 8
 90  2 22  9 51 44.0800000  0  4G 3G16G19G13
  21440187.461    21440191.361    24315336.176 9 -51014683.580 8
  23482087.775    23482093.629   -19037994.447 9  22170709.673 8
  23218775.457    23218780.321    16401116.323 8 -20310093.223 7
  22580139.753    22580144.649    84734858.301 9-121545833.715 9
 90  2 22  9 51 59.0800000  0  4G 3G16G19G13
  21438875.162    21438878.586    24308435.266 9 -51020060.920 8
  23472204.938    23472210.147   -19089933.257 9  22130237.877 8
  23223359.563    23223363.412    16425206.792 8 -20291321.448 7
  22584282.434    22584287.303    84756624.660 8-121528872.933 8
 90  2 22  9 52 14.0800000  0  4G 3G16G19G13
  21437567.508    21437568.813    24301560.739 9 -51025417.701 7
  23462326.431    23462330.723   -19141849.349 9  22089783.796 8
  23227960.486    23227965.812    16449388.256 9 -20272478.753 7
  22588427.006    22588432.145    84778408.367 8-121511898.640 8
 90  2 22  9 52 29.0800000  0  4G 3G16G19G13
  21436263.987    21436267.241    24294713.010 9 -51030753.588 7
  23452450.499    23452455.500   -19193742.144 9  22049347.880 8
  23232579.256    23232584.403    16473660.429 9 -20253565.373 7
  22592575.156    22592579.923    84800209.584 8-121494910.683 7
 90  2 22  9 52 44.0800000  0  4G 3G16G19G13
  21434965.717    21434968.285    24287892.056 9 -51036068.618 8
  23442580.039    23442584.603   -19245611.290 8  22008930.396 8
  23237216.363    23237219.762    16498023.093 9 -20234581.490 7
  22596725.450    22596731.649    84822028.578 8-121477908.875 7
 90  2 22  9 52 59.0800000  0  4G 3G16G19G13
  21433672.712    21433676.361    24281097.817 8 -51041362.841 8
  23432713.601    23432718.710   -19297456.472 9  21968531.552 8
  23241868.987    23241875.537    16522475.902 8 -20215527.357 7
  22600882.758    22600888.396    84843865.188 9-121460893.352 8
 90  2 22  9 53 14.0800000  0  4G 3G16G19G13
  21432385.813    21432387.788    24274330.589 9 -51046636.002 7
  23422853.279    23422858.700   -19349277.581 9  21928151.498 8
  23246539.377    23246545.624    16547018.479 8 -20196403.280 7
  22605042.035    22605045.307    84865719.408 9-121443864.107 9
 90  2 22  9 53 29.0800000  0  4G 3G16G19G13
  21431102.636    21431106.141    24267590.152 9 -51051888.284 7
  23412996.491    23413000.585   -19401073.781 9  21887790.849 8
  23251227.508    23251231.244    16571650.500 9 -20177209.505 7
  22609203.777    22609207.747    84887591.272 9-121426821.097 8
 90  2 22  9 53 44.0800000  0  4G 3G16G19G13
  21429824.439    21429829.360    24260876.429 9 -51057119.764 8
  23403144.484    23403150.007   -19452845.208 9  21847449.495 8
  23255932.021    23255936.599    16596371.674 9 -20157946.262 6
  22613369.429    22613372.515    84909481.089 9-121409764.105 8
 90  2 22  9 53 59.0800000  0  4G 3G16G19G13
  21428552.423    21428556.613    24254189.811 9 -51062330.116 7
  23393296.742    23393303.045   -19504591.293 8  21807127.901 8
  23260652.576    23260656.645    16621181.903 8 -20138613.617 7
  22617538.645    22617542.661    84931388.757 9-121392693.214 9
 90  2 22  9 54 14.0800000  0  4G 3G16G19G13
  21427285.544    21427289.563    24247529.809 8 -51067519.733 8
  23383454.985    23383460.816   -19556311.989 9  21766826.078 9
  23265390.810    23265395.050    16646080.308 8 -20119212.263 7
  22621709.635    22621715.227    84953313.914 9-121375608.681 8
 90  2 22  9 54 29.0800000  0  4G 3G16G19G13
  21426022.542    21426026.061    24240896.627 9 -51072688.444 7
  23373617.638    23373623.983   -19608006.772 8  21726544.439 9
  23270145.292    23270149.063    16671066.761 8 -20099742.305 8
  22625886.441    22625890.519    84975257.147 9-121358510.075 8
 90  2 22  9 54 44.0800000  0  4G 3G16G19G13
  21424765.481    21424769.342    24234290.582 9 -51077836.033 7
  23363784.731    23363792.244   -19659675.223 8  21686283.353 8
  23274916.478    23274919.614    16696140.828 9 -20080204.065 7
  22630065.738    22630070.364    84997218.355 9-121341397.465 8
 90  2 22  9 54 59.0800000  0  4G 3G16G19G13
  21423512.566    21423517.058    24227711.642 8 -51082962.472 7
  23353959.119    23353964.354   -19711316.809 8  21646043.165 8
  23279704.483    23279708.269    16721302.299 8 -20060597.745 7
  22634247.836    22634251.352    85019197.494 9-121324270.877 9
 90  2 22  9 55 14.0800000  0  4G 3G16G19G13
  21422265.607    21422271.015    24221160.043 8 -51088067.610 7
  23344135.824    23344142.844   -19762931.381 7  21605824.043 8
  23284509.393    23284514.559    16746550.804 8 -20040923.599 7
  22638432.478    22638438.190    85041194.880 9-121307130.077 8
 90  2 22  9 55 29.0800000  0  4G 3G16G19G13
  21421025.087    21421029.291    24214635.681 8 -51093151.537 8
  23334318.822    23334325.625   -19814518.478 8  21565626.353 9
  23289330.780    23289335.302    16771886.260 8 -20021181.692 6
  22642622.083    22642627.183    85063210.494 9-121289975.054 8
 90  2 22  9 55 44.0800000  0  4G 3G16G19G13
  21419787.739    21419792.803    24208138.745 8 -51098214.071 7
  23324508.727    23324513.891   -19866077.559 8  21525450.465 8
  23294168.406    23294172.172    16797308.684 8 -20001372.038 7
  22646815.952    22646821.880    85085244.668 9-121272805.571 8
 90  2 22  9 55 59.0800000  0  4G 3G16G19G13
  21418557.680    21418560.727    24201669.292 9 -51103255.205 8
  23314701.857    23314708.932   -19917608.286 7  21485296.675 8
  23299021.812    23299027.028    16822817.589 8 -19981494.966 7
  22651012.585    22651017.857    85107297.366 9-121255621.663 8
 90  2 22  9 56 14.0800000  0  4G 3G16G19G13
  21417332.225    21417335.344    24195227.134 8 -51108275.059 7
  23304901.991    23304908.408   -19969110.546 8  21445165.087 8
  23303893.338    23303896.507    16848412.483 8 -19961550.914 7
  22655212.804    22655216.868    85129368.719 9-121238423.225 8
 90  2 22  9 56 29.0800000  0  4G 3G16G19G13
  21416111.524    21416113.854    24188812.410 9 -51113273.555 7
  23295106.548    23295113.751   -20020583.876 8  21405056.002 9
  23308779.377    23308783.528    16874092.778 8 -19941540.292 6
  22659414.893    22659420.698    85151458.524 9-121221210.399 8
 90  2 22  9 56 44.0800000  0  4G 3G16G19G13
  21414896.357    21414899.834    24182425.299 8 -51118250.526 8
  23285316.177    23285323.459   -20072028.023 9  21364969.688 8
  23313683.677    23313686.289    16899858.207 8 -19921463.338 7
  22663622.503    22663628.035    85173567.143 9-121203982.914 8
 90  2 22  9 56 59.0800000  0  4G 3G16G19G13
  21413687.129    21413689.132    24176065.796 9 -51123205.979 7
  23275533.484    23275540.215   -20123442.295 7  21324906.659 9
  23318601.416    23318606.183    16925708.569 9 -19901320.215 7
  22667833.158    22667839.365    85195694.694 9-121186740.690 9
 90  2 22  9 57 14.0800000  0  4G 3G16G19G13
  21412480.549    21412485.098    24169734.097 9 -51128139.782 8
  23265754.060    23265761.497   -20174826.600 8  21284866.977 9
  23323537.073    23323541.491    16951643.538 8 -19881111.164 7
  22672047.744    22672052.863    85217841.067 9-121169483.780 8
 90  2 22  9 57 29.0800000  0  4G 3G16G19G13
  21411280.582    21411285.933    24163430.054 9 -51133052.019 7
  23255982.905    23255988.765   -20226180.670 8  21244850.846 8
  23328488.598    23328493.044    16977662.844 8 -19860836.384 7
  22676265.672    22676271.889    85240006.312 9-121152212.185 8
 90  2 22  9 57 44.0800000  0  4G 3G16G19G13
  21410086.623    21410089.684    24157153.716 9 -51137942.654 8
  23246215.965    23246222.497   -20277503.904 8  21204858.713 8
  23333456.654    23333458.415    17003766.071 9 -19840496.219 6
  22680487.971    22680493.369    85262190.488 9-121134925.814 7
 90  2 22  9 57 59.0800000  0  4G 3G16G19G13
  21408897.485    21408900.674    24150905.164 9 -51142811.662 8
  23236454.018    23236461.818   -20328795.981 8  21164890.898 9
  23338439.019    23338445.218    17029953.061 8 -19820090.779 6
  22684712.908    22684717.388    85284393.812 9-121117624.535 8
 90  2 22  9 58 14.0800000  0  4G 3G16G19G13
  21407713.916    21407716.676    24144684.562 9 -51147658.879 8
  23226702.110    23226706.103   -20380056.693 9  21124947.517 9
  23343437.697    23343441.516    17056223.188 9 -19799620.562 6
  22688941.989    22688947.011    85306616.206 9-121100308.399 8
 90  2 22  9 58 29.0800000  0  4G 3G16G19G13
  21406535.839    21406539.429    24138492.068 9 -51152484.198 8
  23216952.958    23216957.660   -20431285.382 9  21085029.056 9
  23348453.441    23348456.122    17082576.613 8 -19779085.439 8
  22693174.894    22693178.736    85328857.961 9-121082977.183 8
 90  2 22  9 58 44.0800000  0  4G 3G16G19G13
  21405362.800    21405366.590    24132327.542 9 -51157287.723 8
  23207209.908    23207216.753   -20482481.924 8  21045135.677 8
  23353483.180    23353487.051    17109012.892 9 -19758485.743 6
  22697410.341    22697415.029    85351118.995 9-121065630.938 8
 90  2 22  9 58 59.0800000  0  4G 3G16G19G13
  21404195.256    21404199.102    24126191.002 9 -51162069.442 7
  23197474.105    23197479.929   -20533646.087 9  21005267.532 8
  23358529.266    23358534.037    17135531.299 8 -19737822.068 7
  22701649.868    22701654.586    85373399.462 9-121048269.552 8
 90  2 22  9 59 14.0800000  0  4G 3G16G19G13
  21403032.245    21403036.141    24120082.764 8 -51166829.115 7
  23187743.518    23187750.191   -20584777.261 9  20965425.064 8
  23363592.688    23363595.903    17162131.723 9 -19717094.463 7
  22705893.269    22705897.760    85395699.327 9-121030893.054 7
 90  2 22  9 59 29.0800000  0  4G 3G16G19G13
  21401875.106    21401879.897    24114002.848 9 -51171566.717 8
  23178021.067    23178028.126   -20635875.017 8  20925608.656 9
  23368668.495    23368674.275    17188813.907 9 -19696303.168 6
  22710141.082    22710146.467    85418018.895 9-121013501.189 8
 90  2 22  9 59 44.0800000  0  4G 3G16G19G13
  21400723.746    21400727.753    24107951.497 9 -51176282.047 7
  23168303.707    23168309.100   -20686938.927 8  20885818.603 8
  23373762.387    23373768.220    17215577.745 8 -19675448.247 8
  22714391.311    22714395.850    85440358.402 9-120996093.797 8
 90  2 22  9 59 59.0800000  0  4G 3G16G19G13
  21399577.920    21399580.668    24101928.640 9 -51180975.181 9
  23158593.747    23158597.453   -20737968.674 8  20846055.202 8
  23378871.579    23378874.720    17242422.601 8 -19654530.177 8
  22718646.590    22718651.315    85462717.668 9-120978671.000 7
 90  2 22 10  0 14.0800000  0  4G 3G16G19G13
  21398437.893    21398439.968    24095934.088 8 -51185646.263 7
  23148889.361    23148894.373   -20788964.142 9  20806318.482 9
  23383993.192    23383998.832    17269348.008 8 -19633549.352 6
  22722905.242    22722909.621    85485096.712 9-120961232.795 7
 90  2 22 10  0 29.0800000  0  4G 3G16G19G13
  21397302.031    21397304.247    24089968.005 9 -51190295.165 8
  23139190.826    23139197.729   -20839924.905 9  20766608.802 8
  23389133.672    23389138.505    17296353.631 7 -19612506.013 8
  22727167.721    22727172.761    85507495.511 9-120943779.193 8
 90  2 22 10  0 44.0800000  0  4G 3G16G19G13
  21396172.677    21396175.309    24084030.276 9 -51194921.970 7
  23129500.755    23129506.527   -20890850.656 9  20726926.436 8
  23394288.556    23394292.253    17323439.150 9 -19591400.424 7
  22731433.906    22731438.745    85529914.107 9-120926310.172 7
 90  2 22 10  0 59.0800000  0  4G 3G16G19G13
  21395046.800    21395051.864    24078121.528 8 -51199526.190 8
  23119816.965    23119821.486   -20941740.806 9  20687271.777 9
  23399457.634    23399462.325    17350604.621 8 -19570232.541 6
  22735702.367    22735709.384    85552353.051 9-120908825.296 8
 90  2 22 10  1 14.0800000  0  4G 3G16G19G13
  21393927.306    21393932.600    24072241.499 9 -51204108.018 8
  23110138.585    23110144.167   -20992595.142 8  20647645.035 8
  23404641.746    23404645.568    17377849.468 8 -19549002.816 7
  22739977.160    22739982.733    85574812.167 9-120891324.703 8
 90  2 22 10  1 29.0800000  0  4G 3G16G19G13
  21392814.138    21392819.373    24066390.170 9 -51208667.492 8
  23100469.048    23100474.643   -21043413.320 9  20608046.484 8
  23409841.388    23409846.649    17405173.364 8 -19527711.474 6
  22744255.350    22744260.179    85597291.489 9-120873808.359 8
 90  2 22 10  1 44.0800000  0  4G 3G16G19G13
  21391706.020    21391710.468    24060567.709 9 -51213204.477 7
  23090805.221    23090810.857   -21094194.896 9  20568476.418 8
  23415055.267    23415059.897    17432575.901 8 -19506358.855 6
  22748536.550    22748540.696    85619791.036 9-120856276.272 7
 90  2 22 10  1 59.0800000  0  4G 3G16G19G13
  21390604.039    21390609.089    24054774.181 9 -51217718.912 8
  23081148.935    23081153.892   -21144939.692 8  20528935.060 8
  23420285.035    23420289.103    17460056.718 8 -19484945.260 6
  22752821.180    22752827.582    85642310.854 9-120838728.368 7
 90  2 22 10  2 14.0800000  0  4G 3G16G19G13
  21389507.725    21389511.573    24049009.449 9 -51222210.904 8
  23071500.146    23071504.222   -21195647.073 9  20489422.833 8
  23425527.402    23425533.453    17487615.426 7 -19463470.937 7
  22757111.330    22757116.356    85664851.074 9-120821164.577 7
 90  2 22 10  2 29.0800000  0  4G 3G16G19G13
  21388416.664    21388419.896    24043274.005 9 -51226680.067 7
  23061858.491    23061861.925   -21246316.621 8  20449940.083 8
  23430788.561    23430791.610    17515251.810 8 -19441936.112 8
  22761404.619    22761409.374    85687411.977 9-120803584.663 7
 90  2 22 10  2 44.0800000  0  4G 3G16G19G13
  21387329.409    21387334.688    24037567.918 8 -51231126.384 7
  23052224.125    23052228.925   -21296948.037 8  20410487.047 9
  23436061.779    23436066.742    17542965.961 8 -19420340.674 6
  22765701.228    22765707.109    85709993.587 9-120785988.614 7
 90  2 22 10  2 59.0800000  0  4G 3G16G19G13
  21386249.495    21386253.514    24031890.896 8 -51235550.039 7
  23042596.170    23042599.960   -21347541.257 9  20371063.768 8
  23441351.658    23441355.472    17570756.899 9 -19398685.410 6
  22770002.857    22770007.375    85732595.783 8-120768376.540 8
 90  2 22 10  3 14.0800000  0  4G 3G16G19G13
  21385174.904    21385179.323    24026243.347 9 -51239950.732 7
  23032975.221    23032979.692   -21398095.706 8  20331670.733 8
  23446653.879    23446656.909    17598624.561 8 -19376970.341 6
  22774307.846    22774312.910    85755218.814 8-120750748.208 8
 90  2 22 10  3 29.0800000  0  4G 3G16G19G13
  21384106.764    21384109.852    24020624.872 9 -51244328.750 9
  23023362.398    23023366.726   -21448611.144 8  20292308.048 8
  23451970.586    23451976.616    17626568.324 8 -19355196.000 7
  22778616.517    22778623.252    85777862.511 8-120733103.801 7
 90  2 22 10  3 44.0800000  0  4G 3G16G19G13
  21383042.747    21383046.080    24015036.065 9 -51248683.658 7
  23013757.046    23013761.552   -21499087.060 8  20252976.197 8
  23457303.016    23457307.217    17654588.135 8 -19333362.388 8
  22782928.400    22782933.727    85800527.015 9-120715443.151 7
 90  2 22 10  3 59.0800000  0  4G 3G16G19G13
  21381984.881    21381988.259    24009476.781 9 -51253015.578 7
  23004160.507    23004163.353   -21549523.055 9  20213675.431 8
  23462651.115    23462654.478    17682683.823 8 -19311469.655 7
  22787247.152    22787251.388    85823212.495 9-120697766.161 7
 90  2 22 10  4 14.0800000  0  4G 3G16G19G13
  21380931.413    21380936.016    24003947.000 8 -51257324.496 8
  22994568.955    22994574.027   -21599918.889 9  20174405.972 8
  23468010.547    23468015.415    17710854.606 9 -19289518.421 6
  22791567.092    22791572.332    85845919.104 8-120680072.719 7
 90  2 22 10  4 29.0800000  0  4G 3G16G19G13
  21379885.451    21379889.528    23998446.888 8 -51261610.289 8
  22984988.327    22984992.120   -21650274.099 9  20135168.179 8
  23473384.960    23473389.586    17739100.284 9 -19267508.789 7
  22795892.459    22795897.473    85868646.999 9-120662362.683 7
 90  2 22 10  4 44.0800000  0  4G 3G16G19G13
  21378844.201    21378849.275    23992976.624 8 -51265872.836 7
  22975412.925    22975417.695   -21700588.574 8  20095962.093 8
  23478773.676    23478779.478    17767420.645 8 -19245440.993 8
  22800221.455    22800225.257    85891396.065 9-120644636.155 7
 90  2 22 10  4 59.0800000  0  4G 3G16G19G13
  21377809.489    21377812.778    23987536.014 8 -51270112.259 8
  22965846.420    22965851.591   -21750861.820 8  20056788.160 8
  23484178.169    23484181.630    17795815.083 8 -19223315.468 7
  22804555.150    22804559.131    85914166.605 8-120626892.879 7
 90  2 22 10  5 14.0800000  0  4G 3G16G19G13
  21376780.612    21376783.775    23982125.471 9 -51274328.274 8
  22956288.395    22956292.849   -21801093.237 8  20017646.815 8
  23489594.660    23489598.940    17824283.505 8 -19201132.300 7
  22808889.859    22808897.178    85936958.667 9-120609132.864 7
 90  2 22 10  5 29.0800000  0  4G 3G16G19G13
  21375756.648    21375760.723    23976744.787 8 -51278521.000 7
  22946736.208    22946742.001   -21851282.680 8  19978538.173 8
  23495027.036    23495030.912    17852825.462 7 -19178891.830 7
  22813231.819    22813239.301    85959772.242 8-120591356.069 8
 90  2 22 10  5 44.0800000  0  4G 3G16G19G13
  21374738.419    21374741.765    23971394.078 9 -51282690.405 8
  22937194.789    22937199.167   -21901429.894 8  19939462.449 8
  23500472.250    23500477.193    17881440.703 8 -19156594.250 8
  22817578.375    22817583.647    85982607.296 8-120573562.530 7
 90  2 22 10  5 59.0800000  0  4G 3G16G19G13
  21373725.916    21373728.706    23966073.799 9 -51286836.069 8
  22927659.521    22927664.000   -21951534.224 9  19900420.138 8
  23505932.468    23505934.959    17910129.030 7 -19134239.726 7
  22821928.547    22821933.649    86005464.150 8-120555752.030 7
 90  2 22 10  6 14.0800000  0  4G 3G16G19G13
  21372718.691    21372723.826    23960783.585 8 -51290958.311 8
  22918133.856    22918137.275   -22001595.407 9  19861411.438 9
  23511404.294    23511410.602    17938889.796 8 -19111828.749 7
  22826280.875    22826285.069    86028342.488 8-120537924.757 6
 90  2 22 10  6 29.0800000  0  4G 3G16G19G13
  21371718.193    21371721.955    23955523.745 9 -51295056.893 8
  22908614.514    22908620.603   -22051613.018 9  19822436.697 8
  23516891.196    23516895.716    17967722.741 7 -19089361.533 7
  22830639.455    22830644.143    86051242.755 9-120520080.415 6
 90  2 22 10  6 44.0800000  0  4G 3G16G19G13
  21370722.945    21370726.864    23950294.444 9 -51299131.672 7
  22899104.139    22899109.219   -22101586.777 8  19783496.134 9
  23522390.703    23522395.080    17996627.545 7 -19066838.302 7
  22835001.416    22835005.489    86074164.938 9-120502218.979 6
 90  2 22 10  6 59.0800000  0  4G 3G16G19G13
  21369733.107    21369738.070    23945095.460 8 -51303182.836 8
  22889603.278    22889608.759   -22151516.405 8  19744589.950 8
  23527905.738    23527910.131    18025603.786 7 -19044259.436 6
  22839367.833    22839373.352    86097109.158 9-120484340.389 8
 90  2 22 10  7 14.0800000  0  4G 3G16G19G13
  21368749.979    21368754.114    23939926.848 8 -51307210.315 7
  22880110.339    22880115.461   -22201401.670 8  19705718.337 9
  23533432.954    23533437.132    18054651.142 9 -19021625.152 6
  22843738.551    22843742.892    86120075.490 9-120466444.549 8
 90  2 22 10  7 29.0800000  0  4G 3G16G19G13
  21367771.861    21367775.679    23934788.882 9 -51311213.919 7
  22870626.150    22870632.080   -22251242.041 8  19666881.704 8
  23538973.905    23538977.961    18083769.168 8 -18998935.788 7
  22848113.087    22848117.665    86143064.013 9-120448531.434 7
 90  2 22 10  7 44.0800000  0  4G 3G16G19G13
  21366800.195    21366803.798    23929681.771 8 -51315193.486 8
  22861149.886    22861155.924   -22301037.027 9  19628080.426 9
  23544527.678    23544533.391    18112957.644 8 -18976191.511 6
  22852491.419    22852498.136    86166074.739 9-120430601.020 7
 90  2 22 10  7 59.0800000  0  4G 3G16G19G13
  21365834.724    21365839.502    23924605.426 8 -51319149.083 7
  22851683.655    22851689.384   -22350786.238 8  19589314.840 8
  23550096.924    23550101.476    18142216.447 7 -18953392.468 8
  22856873.510    22856879.961    86189108.042 9-120412653.005 8
 90  2 22 10  8 14.0800000  0  4G 3G16G19G13
  21364874.176    21364877.725    23919560.142 9 -51323080.475 7
  22842226.666    22842230.422   -22400489.274 9  19550585.225 9
  23555676.695    23555682.735    18171545.160 8 -18930538.946 7
  22861262.120    22861266.351    86212163.911 9-120394687.402 7
 90  2 22 10  8 29.0800000  0  4G 3G16G19G13
  21363920.226    21363923.501    23914545.702 9 -51326987.826 8
  22832776.561    22832781.353   -22450146.083 8  19511891.605 9
  23561269.618    23561276.953    18200943.144 7 -18907631.429 8
  22865653.115    22865657.720    86235242.374 9-120376704.209 7
 90  2 22 10  8 44.0800000  0  4G 3G16G19G13
  21362972.384    21362976.231    23909562.367 8 -51330870.954 7
  22823334.583    22823340.586   -22499756.251 9  19473234.352 9
  23566877.454    23566883.675    18230409.996 8 -18884670.255 7
  22870049.506    22870054.672    86258343.409 9-120358703.406 8
 90  2 22 10  8 59.0800000  0  4G 3G16G19G13
  21362029.080    21362032.197    23904610.156 8 -51334729.818 7
  22813904.030    22813909.144   -22549319.194 9  19434613.906 8
  23572498.909    23572504.667    18259945.695 7 -18861655.437 7
  22874449.149    22874454.415    86281467.158 9-120340684.939 8
 90  2 22 10  9 14.0800000  0  4G 3G16G19G13
  21361093.215    21361097.548    23899689.166 9 -51338564.358 8
  22804481.835    22804487.766   -22598834.644 9  19396030.448 8
  23578130.765    23578137.800    18289549.566 8 -18838587.501 7
  22878853.813    22878859.078    86304613.696 9-120322648.676 6
 90  2 22 10  9 29.0800000  0  4G 3G16G19G13
  21360162.517    21360165.334    23894799.546 9 -51342374.449 8
  22795069.148    22795073.039   -22648302.371 9  19357484.181 9
  23583779.177    23583782.523    18319221.498 8 -18815466.536 7
  22883263.686    22883267.624    86327783.147 9-120304594.583 7
 90  2 22 10  9 44.0800000  0  4G 3G16G19G13
  21359236.796    21359240.874    23889941.241 8 -51346160.137 8
  22785663.945    22785667.814   -22697721.895 9  19318975.468 9
  23589438.850    23589442.084    18348960.904 8 -18792292.984 7
  22887676.248    22887681.466    86350975.475 9-120286522.653 7
 90  2 22 10  9 59.0800000  0  4G 3G16G19G13
  21358318.820    21358324.254    23885114.438 8 -51349921.294 7
  22776268.792    22776274.416   -22747092.928 8  19280504.558 8
  23595109.058    23595115.137    18378767.523 7 -18769067.058 8
  22892094.705    22892101.146    86374190.921 8-120268432.713 8
 90  2 22 10 10 14.0800000  0  4G 3G16G19G13
  21357407.238    21357410.012    23880319.396 9 -51353657.676 8
  22766883.314    22766889.116   -22796414.836 9  19242071.925 7
  23600794.981    23600798.748    18408641.329 8 -18745788.803 7
  22896516.450    22896523.540    86397429.709 9-120250324.582 7
 90  2 22 10 10 29.0800000  0  4G 3G16G19G13
  21356501.108    21356503.583    23875555.880 9 -51357369.515 7
  22757506.853    22757512.348   -22845687.445 8  19203677.706 9
  23606491.400    23606496.587    18438581.598 9 -18722458.705 7
  22900944.200    22900947.343    86420691.492 9-120232198.538 8
 90  2 22 10 10 44.0800000  0  4G 3G16G19G13
  21355599.802    21355603.850    23870824.202 8 -51361056.542 8
  22748139.691    22748145.291   -22894910.461 8  19165322.110 8
  23612203.853    23612206.828    18468588.302 8 -18699076.884 6
  22905374.740    22905379.135    86443976.588 9-120214054.327 6
 90  2 22 10 10 59.0800000  0  4G 3G16G19G13
  21354705.976    21354709.266    23866124.232 9 -51364718.861 8
  22738783.552    22738787.916   -22944083.544 8  19127005.442 8
  23617926.350    23617928.819    18498660.573 8 -18675643.949 7
  22909810.504    22909815.041    86467284.889 9-120195892.020 7
 90  2 22 10 11 14.0800000  0  4G 3G16G19G13
  21353817.061    21353821.009    23861456.356 7 -51368356.159 8
  22729434.056    22729440.785   -22993206.098 9  19088728.137 8
  23623660.836    23623665.539    18528798.400 9 -18652159.943 8
  22914249.660    22914254.494    86490616.734 9-120177711.375 8
 90  2 22 10 11 29.0800000  0  4G 3G16G19G13
  21352934.614    21352938.504    23856820.613 9 -51371968.437 7
  22720097.035    22720102.414   -23042277.929 9  19050490.372 9
  23629407.461    23629413.936    18559001.568 7 -18628624.999 7
  22918694.616    22918699.241    86513972.355 9-120159512.196 7
 90  2 22 10 11 44.0800000  0  4G 3G16G19G13
  21352058.248    21352062.382    23852216.820 8 -51375555.809 9
  22710769.036    22710774.179   -23091298.862 8  19012292.260 8
  23635167.777    23635172.582    18589269.528 8 -18605039.594 7
  22923143.376    22923148.511    86537351.524 8-120141294.694 7
 90  2 22 10 11 59.0800000  0  4G 3G16G19G13
  21351189.321    21351192.096    23847645.124 9 -51379118.185 8
  22701450.604    22701455.026   -23140268.500 9  18974134.109 8
  23640938.798    23640944.972    18619601.712 8 -18581404.145 7
  22927597.148    22927600.683    86560754.544 9-120123058.577 8
 90  2 22 10 12 14.0800000  0  4G 3G16G19G13
  21350324.615    21350329.478    23843105.789 9 -51382655.333 7
  22692140.664    22692146.738   -23189186.312 8  18936016.348 8
  23646724.313    23646729.456    18649997.800 8 -18557718.876 8
  22932054.565    22932060.549    86584181.544 9-120104803.790 8
 90  2 22 10 12 29.0800000  0  4G 3G16G19G13
  21349466.994    21349470.615    23838598.648 9 -51386167.382 8
  22682842.980    22682847.601   -23238052.074 9  18897939.161 9
  23652518.867    23652524.265    18680457.318 8 -18533984.210 7
  22936516.306    22936523.081    86607632.120 9-120086530.638 8
 90  2 22 10 12 44.0800000  0  4G 3G16G19G13
  21348615.727    21348620.077    23834123.859 8 -51389654.216 7
  22673552.852    22673558.961   -23286865.346 8  18859902.847 9
  23658328.028    23658332.855    18710980.148 7 -18510200.191 8
  22940984.065    22940989.342    86631106.728 9-120068238.746 7
 90  2 22 10 12 59.0800000  0  4G 3G16G19G13
  21347770.252    21347773.172    23829681.719 9 -51393115.636 6
  22664274.943    22664280.171   -23335625.795 9  18821907.717 8
  23664149.062    23664151.772    18741565.943 8 -18486367.132 7
  22945456.392    22945461.547    86654605.279 9-120049928.198 7
 90  2 22 10 13 14.0800000  0  4G 3G16G19G13
  21346931.548    21346935.053    23825272.342 8 -51396551.513 7
  22655006.206    22655010.440   -23384333.051 8  18783954.029 8
  23669982.309    23669984.425    18772214.760 8 -18462484.920 7
  22949932.548    22949937.249    86678128.238 9-120031598.649 7
 90  2 22 10 13 29.0800000  0  4G 3G16G19G13
  21346099.353    21346103.117    23820896.257 8 -51399961.455 7
  22645749.173    22645752.937   -23432985.952 8  18746042.702 8
  23675825.014    23675829.796    18802926.503 8 -18438553.712 7
  22954413.116    22954417.957    86701675.944 9-120013249.796 7
 90  2 22 10 13 44.0800000  0  4G 3G16G19G13
  21345272.583    21345276.132    23816553.115 8 -51403345.717 7
  22636499.505    22636504.062   -23481584.995 7  18708173.333 9
  23681681.091    23681685.725    18833700.187 8 -18414574.245 7
  22958898.552    22958904.177    86725247.774 9-119994882.155 7
 90  2 22 10 13 59.0800000  0  4G 3G16G19G13
  21344452.996    21344457.329    23812243.037 9 -51406704.245 7
  22627262.356    22627267.364   -23530129.548 8  18670346.419 8
  23687548.707    23687554.264    18864535.367 7 -18390546.841 7
  22963388.679    22963393.913    86748844.077 9-119976495.433 7
 90  2 22 10 14 14.0800000  0  4G 3G16G19G13
  21343638.216    21343642.792    23807966.125 9 -51410036.892 8
  22618035.289    22618040.424   -23578619.346 8  18632562.186 8
  23693428.631    23693433.836    18895431.853 8 -18366471.662 7
  22967884.337    22967888.505    86772465.162 9-119958089.412 7
 90  2 22 10 14 29.0800000  0  4G 3G16G19G13
  21342831.335    21342834.810    23803722.098 9 -51413343.938 7
  22608818.150    22608822.421   -23627054.378 8  18594820.617 8
  23699318.154    23699322.551    18926389.068 8 -18342349.171 7
  22972383.809    22972388.525    86796110.701 9-119939664.337 8
 90  2 22 10 14 44.0800000  0  4G 3G16G19G13
  21342030.720    21342033.037    23799511.636 9 -51416624.803 8
  22599610.965    22599615.936   -23675433.662 9  18557122.475 8
  23705221.973    23705226.713    18957406.795 9 -18318179.529 7
  22976887.381    22976892.620    86819781.129 9-119921219.861 7
 90  2 22 10 14 59.0800000  0  4G 3G16G19G13
  21341235.702    21341238.734    23795334.704 9 -51419879.567 8
  22590416.257    22590420.827   -23723757.207 9  18519467.791 8
  23711136.183    23711141.400    18988484.762 9 -18293962.949 6
  22981396.626    22981402.705    86843476.510 9-119902755.944 8
 90  2 22 10 15 14.0800000  0  4G 3G16G19G13
  21340446.121    21340450.039    23791191.058 8 -51423108.376 7
  22581231.329    22581235.406   -23772024.489 9  18481856.934 8
  23717061.607    23717064.985    19019622.531 9 -18269699.753 7
  22985910.098    22985917.159    86867196.714 9-119884272.679 7
 90  2 22 10 15 29.0800000  0  4G 3G16G19G13
  21339664.209    21339667.442    23787080.835 9 -51426311.155 8
  22572057.526    22572061.283   -23820235.389 8  18444290.023 8
  23722996.586    23723001.688    19050819.788 7 -18245390.226 7
  22990429.236    22990434.792    86890941.663 9-119865770.131 8
 90  2 22 10 15 44.0800000  0  4G 3G16G19G13
  21338887.834    21338892.570    23783004.375 9 -51429487.627 7
  22562894.084    22562897.840   -23868389.623 8  18406767.250 9
  23728945.356    23728951.312    19082075.998 8 -18221034.754 7
  22994952.157    22994957.849    86914711.672 8-119847248.063 7
 90  2 22 10 15 59.0800000  0  4G 3G16G19G13
  21338119.230    21338122.477    23778961.493 9 -51432637.913 7
  22553740.122    22553747.031   -23916486.715 8  18369289.016 8
  23734903.822    23734909.990    19113390.767 8 -18196633.631 6
  22999480.601    22999485.728    86938506.837 9-119828706.393 8
 90  2 22 10 16 14.0800000  0  4G 3G16G19G13
  21337356.579    21337360.426    23774952.570 9 -51435761.761 7
  22544599.716    22544604.460   -23964526.121 8  18331855.714 8
  23740875.554    23740880.548    19144764.030 7 -18172186.965 8
  23004014.513    23004018.565    86962327.490 9-119810144.855 7
 90  2 22 10 16 29.0800000  0  4G 3G16G19G13
  21336599.779    21336603.099    23770977.741 8 -51438859.032 7
  22535468.514    22535473.169   -24012507.641 9  18294467.542 8
  23746854.490    23746861.196    19176195.284 7 -18147695.088 7
  23008551.271    23008556.093    86986173.404 9-119791563.657 7
 90  2 22 10 16 44.0800000  0  4G 3G16G19G13
  21335849.163    21335854.412    23767036.801 9 -51441929.900 8
  22526349.665    22526353.492   -24060430.793 9  18257124.832 9
  23752848.602    23752853.525    19207683.899 7 -18123158.519 7
  23013094.529    23013099.051    87010044.603 8-119772962.746 8
 90  2 22 10 16 59.0800000  0  4G 3G16G19G13
  21335106.472    21335110.991    23763129.957 9 -51444974.193 7
  22517239.517    22517246.048   -24108295.347 8  18219827.793 9
  23758851.537    23758855.703    19239229.812 8 -18098577.308 7
  23017641.561    23017646.154    87033941.441 9-119754341.847 8
 90  2 22 10 17 14.0800000  0  4G 3G16G19G13
  21334368.820    21334373.355    23759257.401 9 -51447991.755 8
  22508144.687    22508148.708   -24156100.926 9  18182576.716 8
  23764866.047    23764867.754    19270832.614 8 -18073951.783 7
  23022193.205    23022197.273    87057863.827 8-119735701.032 8
 90  2 22 10 17 29.0800000  0  4G 3G16G19G13
  21333639.192    21333642.181    23755419.379 9 -51450982.428 7
  22499057.806    22499062.507   -24203847.082 9  18145371.925 8
  23770888.861    23770894.590    19302491.868 8 -18049282.224 7
  23026750.507    23026756.712    87081812.157 9-119717040.038 7
 90  2 22 10 17 44.0800000  0  4G 3G16G19G13
  21332916.006    21332919.882    23751615.866 9 -51453946.213 8
  22489983.761    22489987.345   -24251533.378 8  18108213.781 8
  23776925.605    23776929.280    19334207.389 9 -18024568.878 6
  23031312.863    23031319.076    87105786.415 8-119698358.817 8
 90  2 22 10 17 59.0800000  0  4G 3G16G19G13
  21332197.557    21332201.276    23747847.016 9 -51456882.978 7
  22480920.582    22480924.617   -24299159.634 8  18071102.449 8
  23782971.200    23782974.159    19365978.719 8 -17999811.980 6
  23035879.649    23035885.175    87129786.418 9-119679657.541 7
 90  2 22 10 18 14.0800000  0  4G 3G16G19G13
  21331488.719    21331491.825    23744112.915 8 -51459792.664 7
  22471868.131    22471874.247   -24346725.215 8  18034038.352 8
  23789025.594    23789030.705    19397805.608 8 -17975011.850 7
  23040452.516    23040456.387    87153812.419 9-119660935.988 7
 90  2 22 10 18 29.0800000  0  4G 3G16G19G13
  21330783.421    21330785.666    23740413.683 8 -51462675.180 7
  22462830.078    22462833.419   -24394230.180 9  17997021.521 8
  23795094.405    23795098.529    19429687.441 8 -17950168.861 6
  23045028.309    23045034.328    87177864.579 9-119642194.064 8
 90  2 22 10 18 44.0800000  0  4G 3G16G19G13
  21330086.535    21330090.210    23736749.261 9 -51465530.589 7
  22453801.836    22453805.970   -24441673.946 9  17960052.364 8
  23801171.440    23801178.031    19461623.900 8 -17925283.330 6
  23049611.446    23049615.582    87201942.898 9-119623431.739 8
 90  2 22 10 18 59.0800000  0  4G 3G16G19G13
  21329396.202    21329398.847    23733120.069 9 -51468358.530 7
  22444783.811    22444788.971   -24489056.101 9  17923131.221 9
  23807259.264    23807264.382    19493614.873 8 -17900355.313 8
  23054198.392    23054202.250    87226047.566 9-119604648.896 8
 90  2 22 10 19 14.0800000  0  4G 3G16G19G13
  21328712.551    21328715.785    23729525.849 9 -51471159.217 7
  22435780.325    22435784.379   -24536376.315 8  17886258.332 9
  23813353.413    23813360.413    19525660.002 7 -17875385.080 5
  23058790.592    23058795.805    87250178.716 8-119585845.416 8
 90  2 22 10 19 29.0800000  0  4G 3G16G19G13
  21328035.427    21328038.845    23725966.999 8 -51473932.353 8
  22426786.116    22426791.667   -24583634.320 8  17849433.930 8
  23819467.225    23819470.273    19557758.854 7 -17850373.007 7
  23063386.770    23063392.482    87274336.269 8-119567021.382 7
 90  2 22 10 19 44.0800000  0  4G 3G16G19G13
  21327363.609    21327367.342    23722443.480 9 -51476677.957 8
  22417806.047    22417810.667   -24630829.840 9  17812658.221 9
  23825584.992    23825588.461    19589910.835 7 -17825319.525 6
  23067989.293    23067994.155    87298520.233 9-119548176.739 7
 90  2 22 10 19 59.0800000  0  4G 3G16G19G13
  21326700.563    21326703.026    23718955.339 9 -51479395.995 7
  22408836.650    22408841.472   -24677962.397 8  17775931.563 9
  23831712.513    23831714.928    19622115.565 8 -17800224.942 7
  23072596.122    23072602.391    87322730.959 9-119529311.252 8
 90  2 22 10 20 14.0800000  0  4G 3G16G19G13
  21326043.885    21326046.977    23715502.905 9 -51482086.210 8
  22399879.039    22399884.504   -24725031.513 9  17739254.350 8
  23837849.229    23837855.302    19654372.851 8 -17775089.391 7
  23077208.751    23077213.021    87346968.577 9-119510424.804 8
 90  2 22 10 20 29.0800000  0  4G 3G16G19G13
  21325393.003    21325398.627    23712086.102 8 -51484748.638 7
  22390934.792    22390938.640   -24772037.096 9  17702626.639 9
  23843997.095    23844004.929    19686682.344 7 -17749913.212 6
  23081826.221    23081831.628    87371233.159 8-119491517.367 7
 90  2 22 10 20 44.0800000  0  4G 3G16G19G13
  21324750.921    21324754.226    23708705.182 9 -51487383.129 8
  22382001.871    22382007.543   -24818978.532 9  17666048.903 8
  23850158.227    23850160.181    19719043.663 7 -17724696.574 7
  23086448.798    23086453.465    87395524.543 9-119472589.047 8
 90  2 22 10 20 59.0800000  0  4G 3G16G19G13
  21324113.748    21324116.867    23705360.051 9 -51489989.729 8
  22373081.005    22373085.983   -24865855.718 9  17629521.246 7
  23856322.417    23856331.175    19751456.376 8 -17699439.956 6
  23091075.942    23091081.347    87419842.727 8-119453639.825 9
 90  2 22 10 21 14.0800000  0  4G 3G16G19G13
  21323483.083    21323486.431    23702051.021 8 -51492568.202 7
  22364172.510    22364178.712   -24912667.974 8  17593044.186 8
  23862503.587    23862508.125    19783920.366 9 -17674143.347 8
  23095708.778    23095714.271    87444188.009 9-119434669.503 7
 90  2 22 10 21 29.0800000  0  4G 3G16G19G13
  21322861.707    21322865.410    23698778.247 8 -51495118.414 8
  22355277.308    22355281.943   -24959415.149 8  17556617.823 8
  23868688.281    23868694.046    19816434.960 7 -17648807.317 7
  23100347.869    23100352.666    87468560.516 9-119415677.954 8
 90  2 22 10 21 44.0800000  0  4G 3G16G19G13
  21322244.951    21322249.717    23695541.902 8 -51497640.243 8
  22346394.505    22346399.081   -25006096.518 7  17520242.750 9
  23874887.637    23874892.698    19849000.279 7 -17623431.772 7
  23104990.408    23104995.772    87492960.665 9-119396664.866 9
 90  2 22 10 21 59.0800000  0  4G 3G16G19G13
  21321635.566    21321639.687    23692342.042 9 -51500133.656 7
  22337522.689    22337528.547   -25052712.092 8  17483918.943 8
  23881093.098    23881098.081    19881615.550 9 -17598017.280 7
  23109637.723    23109645.198    87517388.147 9-119377630.480 8
 90  2 22 10 22 14.0800000  0  4G 3G16G19G13
  21321033.923    21321038.269    23689178.712 8 -51502598.589 7
  22328665.028    22328669.276   -25099261.535 8  17447646.660 8
  23887307.497    23887314.347    19914280.368 8 -17572564.196 7
  23114291.861    23114297.371    87541843.149 9-119358574.654 7
 90  2 22 10 22 29.0800000  0  4G 3G16G19G13
  21320438.601    21320443.294    23686051.919 9 -51505035.050 8
  22319820.801    22319825.186   -25145744.498 8  17411426.186 8
  23893535.341    23893541.205    19946994.366 9 -17547072.751 7
  23118950.628    23118955.922    87566325.681 9-119339497.397 8
 90  2 22 10 22 44.0800000  0  4G 3G16G19G13
  21319849.450    21319854.785    23682961.816 8 -51507442.909 8
  22310988.196    22310991.770   -25192160.683 9  17375257.730 8
  23899767.045    23899773.790    19979757.002 8 -17521543.473 7
  23123614.644    23123620.947    87590835.794 8-119320398.623 8
 90  2 22 10 22 59.0800000  0  4G 3G16G19G13
  21319269.771    21319273.832    23679908.569 9 -51509822.060 8
  22302167.073    22302172.543   -25238509.485 9  17339141.799 8
  23906013.358    23906016.272    20012568.340 8 -17495976.203 7
  23128283.556    23128290.484    87615373.708 8-119301278.183 7
 90  2 22 10 23 14.0800000  0  4G 3G16G19G13
  21318694.969    21318699.605    23676892.337 9 -51512172.375 8
  22293361.252    22293365.293   -25284790.738 8  17303078.504 9
  23912265.285    23912269.521    20045427.620 8 -17470371.558 8
  23132959.569    23132965.755    87639939.551 8-119282135.982 8
 90  2 22 10 23 29.0800000  0  4G 3G16G19G13
  21318129.313    21318132.930    23673913.170 9 -51514493.809 7
  22284566.735    22284571.835   -25331004.157 9  17267068.064 9
  23918528.435    23918533.548    20078334.665 9 -17444729.756 7
  23137640.179    23137646.159    87664533.253 9-119262972.078 8
 90  2 22 10 23 44.0800000  0  4G 3G16G19G13
  21317569.780    21317573.441    23670971.110 8 -51516786.339 8
  22275786.780    22275790.184   -25377149.095 8  17231110.970 9
  23924798.621    23924804.987    20111289.317 8 -17419050.784 7
  23142325.054    23142329.958    87689154.914 9-119243786.390 8
 90  2 22 10 23 59.0800000  0  4G 3G16G19G13
  21317015.557    21317020.820    23668066.308 9 -51519049.822 8
  22267018.142    22267022.642   -25423225.414 9  17195207.364 8
  23931078.452    23931085.342    20144291.082 8 -17393335.158 7
  23147015.235    23147020.746    87713804.677 8-119224578.799 9
 90  2 22 10 24 14.0800000  0  4G 3G16G19G13
  21316469.546    21316474.782    23665198.789 7 -51521284.243 7
  22258261.446    22258267.411   -25469232.908 9  17159357.392 8
  23937368.500    23937371.553    20177339.330 9 -17367583.310 8
  23151711.500    23151717.512    87738482.724 9-119205349.178 8
 90  2 22 10 24 29.0800000  0  4G 3G16G19G13
  21315932.249    21315936.498    23662368.866 8 -51523489.387 7
  22249521.534    22249525.409   -25515170.861 9  17123561.602 9
  23943664.541    23943669.817    20210433.875 8 -17341795.347 7
  23156414.669    23156418.610    87763189.288 9-119186097.331 8
 90  2 22 10 24 44.0800000  0  4G 3G16G19G13
  21315401.720    21315405.083    23659576.734 8 -51525665.079 7
  22240792.489    22240797.332   -25561039.116 9  17087820.109 7
  23949971.578    23949975.083    20243574.594 7 -17315971.429 7
  23161120.309    23161126.165    87787924.333 9-119166823.297 7
 90  2 22 10 24 59.0800000  0  4G 3G16G19G13
  21314876.418    21314879.736    23656822.358 8 -51527811.356 8
  22232077.775    22232081.646   -25606837.423 9  17052133.124 9
  23956287.367    23956292.083    20276760.846 9 -17290112.019 7
  23165832.355    23165836.418    87812687.851 9-119147527.078 8
 90  2 22 10 25 14.0800000  0  4G 3G16G19G13
  21314359.526    21314365.033    23654105.874 9 -51529928.103 7
  22223374.940    22223380.217   -25652565.214 9  17016501.092 8
  23962611.499    23962614.943    20309992.400 8 -17264217.348 7
  23170550.309    23170554.591    87837479.885 9-119128208.616 9
 90  2 22 10 25 29.0800000  0  4G 3G16G19G13
  21313850.477    21313854.052    23651427.654 8 -51532015.026 7
  22214688.394    22214691.741   -25698222.141 9  16980924.274 8
  23968944.340    23968948.376    20343268.820 8 -17238287.666 7
  23175273.123    23175278.174    87862300.506 9-119108867.899 8
 90  2 22 10 25 44.0800000  0  4G 3G16G19G13
  21313346.994    21313352.628    23648787.734 8 -51534072.103 8
  22206012.065    22206017.243   -25743807.705 9  16945403.076 8
  23975282.453    23975288.933    20376589.820 8 -17212323.246 7
  23180002.716    23180006.756    87887150.021 9-119089504.653 8
 90  2 22 10 25 59.0800000  0  4G 3G16G19G13
  21312852.280    21312855.243    23646186.113 8 -51536099.339 8
  22197351.248    22197357.054   -25789321.974 9  16909937.421 7
  23981632.597    23981637.233    20409955.042 7 -17186324.413 7
  23184736.049    23184741.372    87912028.428 9-119070118.901 8
 90  2 22 10 26 14.0800000  0  4G 3G16G19G13
  21312365.496    21312369.330    23643622.948 9 -51538096.619 7
  22188705.132    22188708.507   -25834764.303 9  16874527.821 7
  23987990.082    23987994.398    20443364.096 8 -17160291.377 7
  23189476.332    23189482.299    87936935.737 8-119050710.644 8
 90  2 22 10 26 29.0800000  0  4G 3G16G19G13
  21311885.438    21311888.225    23641098.176 9 -51540063.981 7
  22180070.235    22180075.400   -25880134.440 9  16839174.477 9
  23994356.435    23994361.044    20476816.597 8 -17134224.516 7
  23194221.498    23194226.061    87961872.213 9-119031279.637 7
 90  2 22 10 26 44.0800000  0  4G 3G16G19G13
  21311411.588    21311414.907    23638612.041 8 -51542001.240 8
  22171451.557    22171454.941   -25925431.979 9  16803877.709 8
  24000730.332    24000736.117    20510312.013 8 -17108124.216 7
  23198972.551    23198978.079    87986837.822 8-119011825.930 8
 90  2 22 10 26 59.0800000  0  4G 3G16G19G13
  21310946.124    21310948.913    23636164.633 8 -51543908.307 8
  22162844.779    22162849.729   -25970656.731 8  16768637.659 8
  24007112.317    24007117.017    20543850.124 8 -17081990.629 7
  23203728.047    23203733.018    88011832.812 9-118992349.346 7
 90  2 22 10 27 14.0800000  0  4G 3G16G19G13
  21310486.769    21310491.219    23633756.187 9 -51545785.016 7
  22154252.518    22154257.043   -26015808.320 9  16733454.609 9
  24013502.065    24013507.865    20577430.433 8 -17055824.155 7
  23208490.483    23208495.247    88036857.112 9-118972849.899 7
 90  2 22 10 27 29.0800000  0  4G 3G16G19G13
  21310035.487    21310040.651    23631386.750 9 -51547631.326 7
  22145674.892    22145679.354   -26060886.135 9  16698329.050 8
  24019900.976    24019906.628    20611052.548 8 -17029625.124 8
  23213257.637    23213263.820    88061910.842 8-118953327.534 7
 90  2 22 10 27 44.0800000  0  4G 3G16G19G13
  21309592.502    21309597.524    23629056.514 9 -51549447.096 8
  22137111.469    22137114.997   -26105890.149 9  16663260.996 8
  24026306.322    24026312.120    20644716.352 8 -17003393.595 7
  23218032.088    23218035.014    88086993.812 9-118933782.379 8
 90  2 22 10 27 59.0800000  0  4G 3G16G19G13
  21309157.172    21309160.466    23626765.495 8 -51551232.298 8
  22128562.085    22128565.819   -26150819.903 9  16628250.827 8
  24032721.151    24032724.342    20678421.097 8 -16977130.160 7
  23222809.042    23222816.381    88112106.601 8-118914213.993 7
 90  2 22 10 28 14.0800000  0  4G 3G16G19G13
  21308728.256    21308732.875    23624513.964 9 -51552986.738 7
  22120025.199    22120029.139   -26195674.979 9  16593298.827 9
  24039143.111    24039146.092    20712166.780 8 -16950834.826 8
  23227593.257    23227599.944    88137249.268 9-118894622.337 6
 90  2 22 10 28 29.0800000  0  4G 3G16G19G13
  21308307.206    21308311.298    23622301.880 9 -51554710.451 7
  22111504.540    22111507.486   -26240455.161 9  16558405.186 8
  24045571.592    24045577.163    20745953.063 7 -16924507.883 7
  23232384.102    23232390.605    88162421.672 9-118875007.495 9
 90  2 22 10 28 44.0800000  0  4G 3G16G19G13
  21307893.913    21307897.848    23620129.425 8 -51556403.287 8
  22102996.609    22103000.233   -26285159.901 8  16523570.341 8
  24052009.094    24052013.712    20779779.487 7 -16898149.633 7
  23237180.774    23237186.812    88187623.970 8-118855369.370 7
 90  2 22 10 28 59.0800000  0  4G 3G16G19G13
  21307489.092    21307492.125    23617996.756 8 -51558065.109 8
  22094503.980    22094508.280   -26329789.128 9  16488794.329 8
  24058452.335    24058458.326    20813645.500 7 -16871760.541 7
  23241981.037    23241988.230    88212856.263 8-118835707.857 7
 90  2 22 10 29 14.0800000  0  4G 3G16G19G13
  21307090.496    21307095.074    23615904.073 8 -51559695.746 9
  22086025.749    22086030.269   -26374342.329 8  16454077.580 8
  24064903.718    24064910.688    20847550.847 7 -16845340.812 7
  23246787.783    23246795.715    88238118.658 8-118816022.907 8
 90  2 22 10 29 29.0800000  0  4G 3G16G19G13
  21306699.640    21306702.803    23613851.423 8 -51561295.233 8
  22077562.088    22077567.168   -26418818.966 9  16419420.457 9
  24071365.549    24071368.247    20881495.311 7 -16818890.594 7
  23251601.523    23251607.574    88263411.109 8-118796314.526 8
 90  2 22 10 29 44.0800000  0  4G 3G16G19G13
  21306316.969    21306320.431    23611838.958 9 -51562863.372 8
  22069112.748    22069117.912   -26463219.005 9  16384823.050 9
  24077830.833    24077835.759    20915478.542 8 -16792410.159 7
  23256420.087    23256426.730    88288733.942 9-118776582.473 8
 90  2 22 10 29 59.0800000  0  4G 3G16G19G13
  21305942.081    21305944.557    23609867.102 9 -51564399.898 7
  22060677.543    22060683.594   -26507541.773 9  16350285.848 9
  24084304.368    24084310.442    20949500.033 8 -16765899.931 7
  23261246.346    23261252.230    88314087.361 9-118756826.597 7
 90  2 22 10 30 14.0800000  0  4G 3G16G19G13
  21305574.337    21305578.356    23607935.604 9 -51565904.964 7
  22052258.644    22052263.980   -26551786.911 9  16315809.117 8
  24090788.144    24090792.999    20983559.211 8 -16739360.328 7
  23266076.167    23266081.243    88339471.256 9-118737046.948 8
 90  2 22 10 30 29.0800000  0  4G 3G16G19G13
  21305214.002    21305219.051    23606044.517 9 -51567378.543 7
  22043854.353    22043859.131   -26595954.551 9  16281392.799 8
  24097274.789    24097279.957    21017655.725 8 -16712791.627 8
  23270912.917    23270917.035    88364885.493 9-118717243.657 8
 90  2 22 10 30 44.0800000  0  4G 3G16G19G13
  21304861.753    21304865.471    23604194.242 8 -51568820.318 7
  22035463.416    22035469.530   -26640044.253 8  16247037.195 8
  24103769.866    24103774.846    21051789.404 8 -16686193.980 8
  23275753.932    23275759.071    88390330.283 9-118697416.567 7
 90  2 22 10 30 59.0800000  0  4G 3G16G19G13
  21304516.486    21304521.421    23602384.748 8 -51570230.328 7
  22027089.796    22027094.266   -26684055.412 9  16212742.799 9
  24110273.158    24110278.878    21085959.796 9 -16659567.717 8
  23280602.308    23280608.238    88415806.004 9-118677565.370 7
 90  2 22 10 31 14.0800000  0  4G 3G16G19G13
  21304180.192    21304185.268    23600616.147 8 -51571608.442 8
  22018729.520    22018733.993   -26727987.800 9  16178509.793 8
  24116780.741    24116786.474    21120166.696 9 -16632912.997 7
  23285455.713    23285462.446    88441312.557 9-118657690.163 6
 90  2 22 10 31 29.0800000  0  4G 3G16G19G13
  21303852.381    21303856.472    23598888.492 8 -51572954.666 6
  22010383.649    22010389.242   -26771841.072 9  16144338.427 9
  24123298.235    24123302.643    21154409.775 8 -16606230.099 7
  23290315.147    23290320.795    88466850.014 9-118637790.865 7
 90  2 22 10 31 44.0800000  0  4G 3G16G19G13
  21303531.611    21303536.348    23597202.034 9 -51574268.786 8
  22002054.318    22002059.024   -26815614.982 8  16110228.901 9
  24129822.145    24129826.912    21188688.560 8 -16579519.361 8
  23295181.091    23295185.730    88492418.375 9-118617867.466 6
 90  2 22 10 31 59.0800000  0  4G 3G16G19G13
  21303218.155    21303222.431    23595556.970 8 -51575550.655 7
  21993739.016    21993744.167   -26859309.093 9  16076181.549 9
  24136350.548    24136356.809    21223002.361 7 -16552781.352 8
  23300053.142    23300058.718    88518017.670 9-118597919.972 9
 90  2 22 10 32 14.0800000  0  4G 3G16G19G13
  21302912.567    21302916.989    23593953.406 9 -51576800.181 7
  21985440.816    21985444.906   -26902923.160 9  16042196.590 8
  24142887.572    24142892.717    21257351.007 8 -16526016.187 8
  23304930.172    23304935.532    88543648.125 9-118577948.209 7
 90  2 22 10 32 29.0800000  0  4G 3G16G19G13
  21302615.580    21302619.813    23592391.500 9 -51578017.274 7
  21977155.321    21977160.885   -26946456.570 8  16008274.468 8
  24149429.757    24149435.036    21291734.233 8 -16499224.055 8
  23309813.131    23309817.626    88569310.076 9-118557951.897 8
 90  2 22 10 32 44.0800000  0  4G 3G16G19G13
  21302326.719    21302329.822    23590871.375 8 -51579201.769 7
  21968887.563    21968891.401   -26989909.108 9  15974415.355 8
  24155980.039    24155985.146    21326151.746 9 -16472405.225 7
  23314702.181    23314707.188    88595003.643 8-118537930.956 7
 90  2 22 10 32 59.0800000  0  4G 3G16G19G13
  21302045.572    21302049.878    23589393.234 8 -51580353.569 8
  21960634.384    21960638.711   -27033280.396 9  15940619.558 8
  24162536.132    24162540.907    21360603.016 8 -16445560.101 8
  23319598.468    23319602.816    88620728.514 9-118517885.634 8
 90  2 22 10 33 14.0800000  0  4G 3G16G19G13
  21301773.538    21301776.000    23587957.249 9 -51581472.539 7
  21952394.951    21952399.865   -27076570.134 9  15906887.316 9
  24169098.073    24169103.338    21395087.721 9 -16418688.918 8
  23324499.448    23324504.229    88646484.839 9-118497815.780 7
 90  2 22 10 33 29.0800000  0  4G 3G16G19G13
  21301506.358    21301510.653    23586563.255 9 -51582558.772 8
  21944174.197    21944179.004   -27119777.971 9  15873218.895 9
  24175665.979    24175670.594    21429605.412 9 -16391792.026 8
  23329406.990    23329412.287    88672272.768 9-118477721.313 8
 90  2 22 10 33 44.0800000  0  4G 3G16G19G13
  21301248.922    21301253.856    23585211.477 8 -51583612.096 7
  21935967.404    21935971.731   -27162903.798 9  15839614.364 8
  24182241.792    24182245.866    21464155.670 9 -16364869.761 7
  23334319.639    23334325.877    88698092.531 9-118457602.036 7
 90  2 22 10 33 59.0800000  0  4G 3G16G19G13
  21301001.359    21301004.790    23583902.171 9 -51584632.340 8
  21927777.573    21927780.877   -27205947.074 9  15806074.167 8
  24188822.802    24188826.653    21498738.218 9 -16337922.332 8
  23339238.910    23339242.650    88723944.260 9-118437457.838 8
 90  2 22 10 34 14.0800000  0  4G 3G16G19G13
  21300760.034    21300762.995    23582635.455 9 -51585619.386 8
  21919601.894    21919605.011   -27248907.438 9  15772598.571 9
  24195408.458    24195414.906    21533353.051 8 -16310949.741 8
  23344165.067    23344170.882    88749828.286 9-118417288.488 6
 90  2 22 10 34 29.0800000  0  4G 3G16G19G13
  21300526.620    21300530.243    23581411.479 9 -51586573.146 8
  21911442.089    21911446.689   -27291784.596 9  15739187.819 7
  24202001.196    24202006.352    21567999.602 8 -16283952.441 7
  23349096.873    23349101.455    88775744.280 9-118397094.223 7
 90  2 22 10 34 44.0800000  0  4G 3G16G19G13
  21300302.425    21300305.042    23580230.305 9 -51587493.550 8
  21903299.036    21903303.100   -27334578.105 9  15705842.237 9
  24208600.522    24208607.022    21602677.435 9 -16256930.778 7
  23354033.907    23354039.466    88801692.383 9-118376874.935 7
 90  2 22 10 34 59.0800000  0  4G 3G16G19G13
  21300085.511    21300089.117    23579092.103 9 -51588380.463 7
  21895171.623    21895176.187   -27377287.894 9  15672561.894 8
  24215205.473    24215211.564    21637386.013 8 -16229885.133 8
  23358978.380    23358985.636    88827672.584 9-118356630.639 6
 90  2 22 10 35 14.0800000  0  4G 3G16G19G13
  21299876.396    21299881.319    23577997.078 8 -51589233.737 7
  21887060.213    21887064.298   -27419913.354 9  15639347.263 9
  24221816.406    24221823.027    21672125.152 9 -16202815.700 7
  23363927.758    23363933.469    88853685.039 9-118336361.227 7
 90  2 22 10 35 29.0800000  0  4G 3G16G19G13
  21299676.225    21299681.019    23576945.309 8 -51590053.289 7
  21878965.746    21878969.365   -27462454.190 9  15606198.586 8
  24228433.037    24228438.776    21706894.525 8 -16175722.672 7
  23368883.960    23368889.580    88879730.017 9-118316066.431 7
 90  2 22 10 35 44.0800000  0  4G 3G16G19G13
  21299484.999    21299488.330    23575937.014 9 -51590838.977 7
  21870886.668    21870889.493   -27504910.076 9  15573116.090 9
  24235054.909    24235060.723    21741693.790 9 -16148606.369 7
  23373847.185    23373852.395    88905807.603 9-118295746.245 7
 90  2 22 10 35 59.0800000  0  4G 3G16G19G13
  21299302.468    21299305.373    23574972.322 9 -51591590.673 8
  21862822.207    21862827.686   -27547280.703 9  15540100.026 8
  24241683.137    24241688.168    21776522.470 8 -16121467.149 7
  23378815.137    23378820.573    88931917.912 9-118275400.566 7
 90  2 22 10 36 14.0800000  0  4G 3G16G19G13
  21299125.892    21299130.114    23574051.201 8 -51592308.434 7
  21854776.056    21854780.297   -27589565.957 8  15507150.483 9
  24248316.296    24248321.580    21811380.185 8 -16094305.325 7
  23383790.929    23383794.097    88958060.655 9-118255029.613 7
 90  2 22 10 36 29.0800000  0  4G 3G16G19G13
  21298958.734    21298962.581    23573173.792 9 -51592992.128 7
  21846745.471    21846749.793   -27631765.334 9  15474267.870 8
  24254954.133    24254960.604    21846266.568 8 -16067121.126 8
  23388772.196    23388776.893    88984236.054 9-118234633.208 7
 90  2 22 10 36 44.0800000  0  4G 3G16G19G13
  21298800.445    21298804.464    23572340.414 9 -51593641.519 7
  21838732.187    21838735.313   -27673878.466 9  15441452.467 8
  24261597.891    24261604.974    21881181.177 7 -16039914.946 6
  23393759.588    23393764.188    89010444.408 9-118214211.124 7
 90  2 22 10 36 59.0800000  0  4G 3G16G19G13
  21298650.198    21298654.131    23571551.160 9 -51594256.539 7
  21830734.851    21830738.993   -27715905.020 9  15408704.499 8
  24268247.055    24268253.386    21916123.438 8 -16012687.236 7
  23398753.061    23398756.850    89036685.795 9-118193763.319 8
 90  2 22 10 37 14.0800000  0  4G 3G16G19G13
  21298508.935    21298513.043    23570806.106 9 -51594837.109 7
  21822753.347    21822758.133   -27757844.695 9  15376024.255 8
  24274901.275    24274906.755    21951093.339 8 -15985437.959 7
  23403752.739    23403757.023    89062960.288 9-118173289.686 6
 90  2 22 10 37 29.0800000  0  4G 3G16G19G13
  21298374.515    21298380.169    23570105.499 8 -51595383.026 7
  21814790.389    21814793.980   -27799697.166 9  15343411.955 9
  24281562.766    24281566.944    21986090.421 8 -15958167.518 7
  23408758.363    23408763.557    89089267.798 9-118152790.359 8
 90  2 22 10 37 44.0800000  0  4G 3G16G19G13
  21298250.655    21298254.303    23569449.266 9 -51595894.366 8
  21806841.690    21806845.845   -27841462.106 9  15310867.850 8
  24288225.855    24288232.131    22021114.396 9 -15930876.112 6
  23413769.742    23413775.832    89115608.563 9-118132265.104 8
 90  2 22 10 37 59.0800000  0  4G 3G16G19G13
  21298133.521    21298137.141    23568837.856 9 -51596370.800 8
  21798910.325    21798914.302   -27883139.070 9  15278392.303 8
  24294896.780    24294901.690    22056164.841 7 -15903564.103 6
  23418789.017    23418795.989    89141982.920 8-118111713.680 8
 90  2 22 10 38 14.0800000  0  4G 3G16G19G13
  21298025.543    21298030.163    23568271.344 8 -51596812.241 7
  21790996.971    21791001.096   -27924727.677 9  15245985.620 7
  24301572.648    24301576.371    22091241.283 8 -15876231.804 6
  23423814.705    23423819.876    89168390.563 9-118091136.315 8
 90  2 22 10 38 29.0800000  0  4G 3G16G19G13
  21297928.069    21297930.172    23567749.842 9 -51597218.602 8
  21783098.940    21783103.503   -27966227.649 9  15213647.995 8
  24308252.161    24308257.515    22126343.792 7 -15848879.251 6
  23428846.054    23428851.852    89194831.790 9-118070532.774 8
 90  2 22 10 38 44.0800000  0  4G 3G16G19G13
  21297836.646    21297838.621    23567273.523 8 -51597589.765 8
  21775219.840    21775224.090   -28007638.689 9  15181379.662 8
  24314935.055    24314942.177    22161471.653 6 -15821506.904 5
  23433884.946    23433889.328    89221306.652 8-118049903.049 7
 90  2 22 10 38 59.0800000  0  4G 3G16G19G13
  21297754.669    21297757.746    23566842.260 9 -51597925.821 8
  21767355.945    21767361.174   -28048960.641 9  15149180.753 8
  24321624.098    24321632.302    22196624.569 6 -15794115.024 6
  23438929.027    23438933.760    89247814.889 9-118029247.284 7
 90  2 22 10 39 14.0800000  0  4G 3G16G19G13
  21297680.490    21297685.111    23566456.353 9 -51598226.528 7
  21759509.727    21759513.483   -28090193.122 9  15117051.559 8
  24328318.159    24328326.785    22231802.047 6 -15766704.011 5
  23443979.432    23443984.000    89274356.871 9-118008565.244 7
 90  2 22 10 39 29.0800000  0  4G 3G16G19G13
  21297616.328    21297620.089    23566116.103 9 -51598491.663 7
  21751681.380    21751685.224   -28131335.727 9  15084992.408 8
  24335016.112    24335023.891    22267003.812 7 -15739274.111 6
  23449036.270    23449042.150    89300932.637 9-117987856.883 8
 90  2 22 10 39 44.0800000  0  4G 3G16G19G13
  21297561.451    21297563.596    23565821.552 8 -51598721.179 8
  21743868.763    21743873.198   -28172388.022 9  15053003.617 8
  24341722.767    24341726.350    22302229.356 6 -15711825.649 5
  23454100.259    23454106.577    89327542.328 9-117967122.065 7
 90  2 22 10 39 59.0800000  0  4G 3G16G19G13
  21297511.928    21297516.175    23565572.587 9 -51598915.188 8
  21736073.471    21736077.843   -28213349.860 9  15021085.313 8
  24348430.888    24348433.989    22337478.369 7 -15684358.880 6
  23459170.202    23459175.171    89354186.194 9-117946360.640 8
 90  2 22 10 40 14.0800000  0  4G 3G16G19G13
  21297473.318    21297478.169    23565369.648 9 -51599073.307 7
  21728296.611    21728301.484   -28254221.042 9  14989237.650 8
  24355140.220    24355145.834    22372750.500 6 -15656874.084 6
  23464248.290    23464251.808    89380864.298 8-117925572.529 8
 90  2 22 10 40 29.0800000  0  4G 3G16G19G13
  21297443.842    21297447.721    23565212.740 9 -51599195.581 7
  21720535.455    21720540.999   -28295001.013 9  14957461.071 8
  24361857.953    24361862.697    22408045.405 7 -15629371.595 5
  23469328.946    23469336.902    89407576.442 8-117904757.896 7
 90  2 22 10 40 44.0800000  0  4G 3G16G19G13
  21297423.039    21297427.887    23565102.131 9 -51599281.773 8
  21712792.608    21712797.767   -28335689.301 9  14925755.925 9
  24368576.866    24368583.172    22443362.911 7 -15601851.509 6
  23474420.288    23474425.479    89434323.072 8-117883916.368 8
